Time,TemperatureF,DewpointF,PressureIn,WindDirection,WindDirectionDegrees,WindSpeedMPH,WindSpeedGustMPH,Humidity,HourlyPrecipIn,Conditions,Clouds,dailyrainin,SoftwareType,DateUTC
2013-03-23 00:03:00,28.7,21.8,29.95,WNW,292,7.0,9.0,75,0.00,,---,0.00,VWS V14.00,2013-03-23 04:03:00,
2013-03-23 00:05:00,28.5,21.6,29.95,WNW,288,6.0,9.0,75,0.00,,---,0.00,VWS V14.00,2013-03-23 04:05:00,
2013-03-23 00:08:00,28.5,21.6,29.95,WNW,302,4.0,9.0,75,0.00,,---,0.00,VWS V14.00,2013-03-23 04:08:00,
2013-03-23 00:10:00,28.5,21.6,29.95,WNW,294,6.0,9.0,75,0.00,,---,0.00,VWS V14.00,2013-03-23 04:10:00,
2013-03-23 00:13:00,28.4,21.5,29.95,WNW,295,7.0,9.0,75,0.00,,---,0.00,VWS V14.00,2013-03-23 04:13:00,
2013-03-23 00:15:00,28.4,21.5,29.95,NW,316,4.0,9.0,75,0.00,,---,0.00,VWS V14.00,2013-03-23 04:15:00,
2013-03-23 00:18:00,28.4,21.5,29.95,NW,311,4.0,9.0,75,0.00,,---,0.00,VWS V14.00,2013-03-23 04:18:00,
2013-03-23 00:20:00,28.4,21.5,29.95,NW,318,6.0,9.0,75,0.00,,---,0.00,VWS V14.00,2013-03-23 04:20:00,
2013-03-23 00:23:00,28.4,21.5,29.95,NW,322,2.0,9.0,75,0.00,,---,0.00,VWS V14.00,2013-03-23 04:23:00,
2013-03-23 00:24:00,28.4,21.5,29.95,WNW,291,7.0,9.0,75,0.00,,---,0.00,VWS V14.00,2013-03-23 04:24:00,
2013-03-23 00:25:00,28.2,21.3,29.95,WNW,291,1.0,9.0,75,0.00,,---,0.00,VWS V14.00,2013-03-23 04:25:00,
2013-03-23 00:28:00,28.2,21.6,29.95,WNW,295,4.0,9.0,76,0.00,,---,0.00,VWS V14.00,2013-03-23 04:28:00,
2013-03-23 00:29:00,28.2,21.6,29.95,WNW,295,4.0,9.0,76,0.00,,---,0.00,VWS V14.00,2013-03-23 04:29:00,
2013-03-23 00:30:00,28.2,21.6,29.96,WNW,295,6.0,9.0,76,0.00,,---,0.00,VWS V14.00,2013-03-23 04:30:00,
2013-03-23 00:33:00,28.2,21.6,29.96,WNW,284,4.0,9.0,76,0.00,,---,0.00,VWS V14.00,2013-03-23 04:33:00,
2013-03-23 00:34:00,28.2,21.6,29.96,WNW,284,1.0,9.0,76,0.00,,---,0.00,VWS V14.00,2013-03-23 04:34:00,
2013-03-23 00:35:00,28.2,21.6,29.96,WNW,284,1.0,9.0,76,0.00,,---,0.00,VWS V14.00,2013-03-23 04:35:00,
2013-03-23 00:38:00,28.1,21.5,29.96,WNW,284,1.0,9.0,76,0.00,,---,0.00,VWS V14.00,2013-03-23 04:38:00,
2013-03-23 00:39:00,28.1,21.5,29.96,WNW,284,0.0,9.0,76,0.00,,---,0.00,VWS V14.00,2013-03-23 04:39:00,
2013-03-23 00:40:00,28.1,21.5,29.96,WNW,292,0.0,9.0,76,0.00,,---,0.00,VWS V14.00,2013-03-23 04:40:00,
2013-03-23 00:43:00,28.1,21.5,29.96,NW,313,6.0,9.0,76,0.00,,---,0.00,VWS V14.00,2013-03-23 04:43:00,
2013-03-23 00:44:00,28.1,21.5,29.96,NW,313,6.0,9.0,76,0.00,,---,0.00,VWS V14.00,2013-03-23 04:44:00,
2013-03-23 00:45:00,28.1,21.5,29.96,NW,313,0.0,9.0,76,0.00,,---,0.00,VWS V14.00,2013-03-23 04:45:00,
2013-03-23 00:49:00,27.9,21.3,29.96,NW,313,0.0,9.0,76,0.00,,---,0.00,VWS V14.00,2013-03-23 04:49:00,
2013-03-23 00:50:00,27.9,21.3,29.96,NW,313,1.0,9.0,76,0.00,,---,0.00,VWS V14.00,2013-03-23 04:50:00,
2013-03-23 00:54:00,27.9,21.3,29.96,NW,312,4.0,9.0,76,0.00,,---,0.00,VWS V14.00,2013-03-23 04:54:00,
2013-03-23 00:55:00,27.8,21.2,29.96,NW,312,6.0,9.0,76,0.00,,---,0.00,VWS V14.00,2013-03-23 04:55:00,
2013-03-23 00:59:00,27.8,21.2,29.96,WNW,302,6.0,9.0,76,0.00,,---,0.00,VWS V14.00,2013-03-23 04:59:00,
2013-03-23 01:00:00,27.8,21.5,29.96,WNW,299,6.0,9.0,77,0.00,,---,0.00,VWS V14.00,2013-03-23 05:00:00,
2013-03-23 01:04:00,27.6,21.4,29.96,NW,305,6.0,9.0,77,0.00,,---,0.00,VWS V14.00,2013-03-23 05:04:00,
2013-03-23 01:05:00,27.6,21.4,29.96,WNW,294,1.0,9.0,77,0.00,,---,0.00,VWS V14.00,2013-03-23 05:05:00,
2013-03-23 01:09:00,27.6,21.4,29.96,NW,316,7.0,10.0,77,0.00,,---,0.00,VWS V14.00,2013-03-23 05:09:00,
2013-03-23 01:10:00,27.6,21.4,29.96,WNW,295,4.0,10.0,77,0.00,,---,0.00,VWS V14.00,2013-03-23 05:10:00,
2013-03-23 01:14:00,27.6,21.4,29.96,NW,315,6.0,10.0,77,0.00,,---,0.00,VWS V14.00,2013-03-23 05:14:00,
2013-03-23 01:15:00,27.6,21.4,29.96,NW,309,0.0,10.0,77,0.00,,---,0.00,VWS V14.00,2013-03-23 05:15:00,
2013-03-23 01:16:00,27.6,21.4,29.96,NW,306,4.0,10.0,77,0.00,,---,0.00,VWS V14.00,2013-03-23 05:16:00,
2013-03-23 01:19:00,27.6,21.4,29.96,NW,311,2.0,10.0,77,0.00,,---,0.00,VWS V14.00,2013-03-23 05:19:00,
2013-03-23 01:20:00,27.6,21.4,29.96,NW,311,4.0,10.0,77,0.00,,---,0.00,VWS V14.00,2013-03-23 05:20:00,
2013-03-23 01:21:00,27.5,21.2,29.96,NW,311,2.0,10.0,77,0.00,,---,0.00,VWS V14.00,2013-03-23 05:21:00,
2013-03-23 01:24:00,27.5,21.2,29.96,NW,308,6.0,10.0,77,0.00,,---,0.00,VWS V14.00,2013-03-23 05:24:00,
2013-03-23 01:25:00,27.5,21.2,29.96,NW,308,4.0,10.0,77,0.00,,---,0.00,VWS V14.00,2013-03-23 05:25:00,
2013-03-23 01:26:00,27.5,21.2,29.96,NW,306,7.0,10.0,77,0.00,,---,0.00,VWS V14.00,2013-03-23 05:26:00,
2013-03-23 01:29:00,27.5,21.2,29.96,NW,312,4.0,10.0,77,0.00,,---,0.00,VWS V14.00,2013-03-23 05:29:00,
2013-03-23 01:30:00,27.5,21.2,29.96,NW,312,4.0,10.0,77,0.00,,---,0.00,VWS V14.00,2013-03-23 05:30:00,
2013-03-23 01:32:00,27.5,20.9,29.96,NW,320,4.0,10.0,76,0.00,,---,0.00,VWS V14.00,2013-03-23 05:32:00,
2013-03-23 01:34:00,27.3,20.8,29.96,NW,315,6.0,10.0,76,0.00,,---,0.00,VWS V14.00,2013-03-23 05:34:00,
2013-03-23 01:35:00,27.3,20.8,29.96,NW,316,6.0,10.0,76,0.00,,---,0.00,VWS V14.00,2013-03-23 05:35:00,
2013-03-23 01:37:00,27.3,20.8,29.96,NW,311,6.0,10.0,76,0.00,,---,0.00,VWS V14.00,2013-03-23 05:37:00,
2013-03-23 01:40:00,27.3,20.8,29.96,NW,309,4.0,10.0,76,0.00,,---,0.00,VWS V14.00,2013-03-23 05:40:00,
2013-03-23 01:42:00,27.2,20.6,29.96,NW,325,2.0,10.0,76,0.00,,---,0.00,VWS V14.00,2013-03-23 05:42:00,
2013-03-23 01:45:00,27.2,20.6,29.96,NNW,332,4.0,10.0,76,0.00,,---,0.00,VWS V14.00,2013-03-23 05:45:00,
2013-03-23 01:46:00,27.2,21.0,29.96,WNW,295,1.0,10.0,77,0.00,,---,0.00,VWS V14.00,2013-03-23 05:46:00,
2013-03-23 01:47:00,27.2,21.0,29.96,WNW,301,2.0,10.0,77,0.00,,---,0.00,VWS V14.00,2013-03-23 05:47:00,
2013-03-23 01:50:00,27.2,20.6,29.96,WNW,301,4.0,10.0,76,0.00,,---,0.00,VWS V14.00,2013-03-23 05:50:00,
2013-03-23 01:52:00,27.2,20.6,29.96,NW,312,6.0,10.0,76,0.00,,---,0.00,VWS V14.00,2013-03-23 05:52:00,
2013-03-23 01:55:00,27.2,20.6,29.96,NW,304,7.0,10.0,76,0.00,,---,0.00,VWS V14.00,2013-03-23 05:55:00,
2013-03-23 01:57:00,27.0,20.8,29.96,WNW,301,7.0,10.0,77,0.00,,---,0.00,VWS V14.00,2013-03-23 05:57:00,
2013-03-23 01:58:00,27.0,20.8,29.96,WNW,301,2.0,10.0,77,0.00,,---,0.00,VWS V14.00,2013-03-23 05:58:00,
2013-03-23 02:00:00,27.0,20.8,29.96,NW,319,6.0,10.0,77,0.00,,---,0.00,VWS V14.00,2013-03-23 06:00:00,
2013-03-23 02:01:00,27.0,20.8,29.96,NW,309,2.0,4.0,77,0.00,,---,0.00,VWS V14.00,2013-03-23 06:01:00,
2013-03-23 02:02:00,27.0,20.8,29.96,NNW,329,2.0,7.0,77,0.00,,---,0.00,VWS V14.00,2013-03-23 06:02:00,
2013-03-23 02:04:00,27.0,20.8,29.96,NW,308,6.0,7.0,77,0.00,,---,0.00,VWS V14.00,2013-03-23 06:04:00,
2013-03-23 02:05:00,27.0,20.8,29.96,NW,308,1.0,7.0,77,0.00,,---,0.00,VWS V14.00,2013-03-23 06:05:00,
2013-03-23 02:06:00,27.0,20.8,29.96,NW,308,7.0,7.0,77,0.00,,---,0.00,VWS V14.00,2013-03-23 06:06:00,
2013-03-23 02:07:00,27.0,20.8,29.96,NW,309,6.0,7.0,77,0.00,,---,0.00,VWS V14.00,2013-03-23 06:07:00,
2013-03-23 02:09:00,26.9,20.7,29.96,NW,313,4.0,7.0,77,0.00,,---,0.00,VWS V14.00,2013-03-23 06:09:00,
2013-03-23 02:10:00,26.9,20.7,29.96,NW,312,6.0,7.0,77,0.00,,---,0.00,VWS V14.00,2013-03-23 06:10:00,
2013-03-23 02:11:00,26.9,20.7,29.96,NW,312,4.0,7.0,77,0.00,,---,0.00,VWS V14.00,2013-03-23 06:11:00,
2013-03-23 02:12:00,26.9,20.7,29.96,NW,312,2.0,7.0,77,0.00,,---,0.00,VWS V14.00,2013-03-23 06:12:00,
2013-03-23 02:14:00,26.9,20.7,29.96,NW,312,4.0,7.0,77,0.00,,---,0.00,VWS V14.00,2013-03-23 06:14:00,
2013-03-23 02:15:00,26.9,20.7,29.96,NW,312,1.0,7.0,77,0.00,,---,0.00,VWS V14.00,2013-03-23 06:15:00,
2013-03-23 02:16:00,26.9,20.7,29.96,NW,312,0.0,7.0,77,0.00,,---,0.00,VWS V14.00,2013-03-23 06:16:00,
2013-03-23 02:17:00,26.7,20.5,29.96,NW,312,1.0,7.0,77,0.00,,---,0.00,VWS V14.00,2013-03-23 06:17:00,
2013-03-23 02:19:00,26.7,20.5,29.96,NW,311,1.0,7.0,77,0.00,,---,0.00,VWS V14.00,2013-03-23 06:19:00,
2013-03-23 02:20:00,26.7,20.5,29.96,NW,313,0.0,7.0,77,0.00,,---,0.00,VWS V14.00,2013-03-23 06:20:00,
2013-03-23 02:21:00,26.7,20.5,29.96,NW,313,4.0,7.0,77,0.00,,---,0.00,VWS V14.00,2013-03-23 06:21:00,
2013-03-23 02:22:00,26.7,20.5,29.96,NW,313,1.0,7.0,77,0.00,,---,0.00,VWS V14.00,2013-03-23 06:22:00,
2013-03-23 02:24:00,26.7,20.5,29.96,NW,313,2.0,7.0,77,0.00,,---,0.00,VWS V14.00,2013-03-23 06:24:00,
2013-03-23 02:25:00,26.6,20.4,29.96,NW,313,2.0,7.0,77,0.00,,---,0.00,VWS V14.00,2013-03-23 06:25:00,
2013-03-23 02:27:00,26.6,20.4,29.96,NW,313,1.0,7.0,77,0.00,,---,0.00,VWS V14.00,2013-03-23 06:27:00,
2013-03-23 02:28:00,26.6,20.4,29.96,NW,313,7.0,7.0,77,0.00,,---,0.00,VWS V14.00,2013-03-23 06:28:00,
2013-03-23 02:29:00,26.6,20.4,29.96,WNW,296,1.0,7.0,77,0.00,,---,0.00,VWS V14.00,2013-03-23 06:29:00,
2013-03-23 02:30:00,26.6,20.4,29.96,WNW,296,0.0,7.0,77,0.00,,---,0.00,VWS V14.00,2013-03-23 06:30:00,
2013-03-23 02:32:00,26.6,20.4,29.96,WNW,296,1.0,7.0,77,0.00,,---,0.00,VWS V14.00,2013-03-23 06:32:00,
2013-03-23 02:33:00,26.6,20.4,29.96,WNW,296,0.0,7.0,77,0.00,,---,0.00,VWS V14.00,2013-03-23 06:33:00,
2013-03-23 02:34:00,26.6,20.4,29.96,WNW,296,2.0,7.0,77,0.00,,---,0.00,VWS V14.00,2013-03-23 06:34:00,
2013-03-23 02:35:00,26.6,20.4,29.96,NW,304,6.0,7.0,77,0.00,,---,0.00,VWS V14.00,2013-03-23 06:35:00,
2013-03-23 02:37:00,26.4,20.2,29.96,NW,304,4.0,7.0,77,0.00,,---,0.00,VWS V14.00,2013-03-23 06:37:00,
2013-03-23 02:38:00,26.4,20.2,29.96,NW,304,0.0,7.0,77,0.00,,---,0.00,VWS V14.00,2013-03-23 06:38:00,
2013-03-23 02:39:00,26.4,20.2,29.96,NW,304,2.0,7.0,77,0.00,,---,0.00,VWS V14.00,2013-03-23 06:39:00,
2013-03-23 02:40:00,26.4,20.2,29.96,NW,304,4.0,7.0,77,0.00,,---,0.00,VWS V14.00,2013-03-23 06:40:00,
2013-03-23 02:42:00,26.4,20.2,29.96,NW,304,0.0,7.0,77,0.00,,---,0.00,VWS V14.00,2013-03-23 06:42:00,
2013-03-23 02:43:00,26.4,20.5,29.96,NW,304,1.0,7.0,78,0.00,,---,0.00,VWS V14.00,2013-03-23 06:43:00,
2013-03-23 02:44:00,26.4,20.5,29.96,NW,304,0.0,7.0,78,0.00,,---,0.00,VWS V14.00,2013-03-23 06:44:00,
2013-03-23 02:46:00,26.3,20.4,29.96,NW,304,0.0,7.0,78,0.00,,---,0.00,VWS V14.00,2013-03-23 06:46:00,
2013-03-23 02:47:00,26.3,20.4,29.96,NW,305,4.0,7.0,78,0.00,,---,0.00,VWS V14.00,2013-03-23 06:47:00,
2013-03-23 02:48:00,26.3,20.4,29.96,NW,305,2.0,7.0,78,0.00,,---,0.00,VWS V14.00,2013-03-23 06:48:00,
2013-03-23 02:49:00,26.3,20.4,29.96,SW,226,7.0,9.0,78,0.00,,---,0.00,VWS V14.00,2013-03-23 06:49:00,
2013-03-23 02:51:00,26.3,20.4,29.96,WNW,301,4.0,9.0,78,0.00,,---,0.00,VWS V14.00,2013-03-23 06:51:00,
2013-03-23 02:52:00,26.3,20.4,29.96,WNW,302,2.0,9.0,78,0.00,,---,0.00,VWS V14.00,2013-03-23 06:52:00,
2013-03-23 02:53:00,26.3,20.4,29.96,NW,322,1.0,9.0,78,0.00,,---,0.00,VWS V14.00,2013-03-23 06:53:00,
2013-03-23 02:54:00,26.3,20.4,29.96,NW,323,1.0,9.0,78,0.00,,---,0.00,VWS V14.00,2013-03-23 06:54:00,
2013-03-23 02:56:00,26.3,20.4,29.96,NW,323,1.0,9.0,78,0.00,,---,0.00,VWS V14.00,2013-03-23 06:56:00,
2013-03-23 02:57:00,26.3,20.4,29.96,NW,323,2.0,9.0,78,0.00,,---,0.00,VWS V14.00,2013-03-23 06:57:00,
2013-03-23 02:58:00,26.3,20.4,29.96,NW,315,6.0,9.0,78,0.00,,---,0.00,VWS V14.00,2013-03-23 06:58:00,
2013-03-23 03:00:00,26.3,20.4,29.96,NW,315,0.0,9.0,78,0.00,,---,0.00,VWS V14.00,2013-03-23 07:00:00,
2013-03-23 03:01:00,26.1,20.2,29.96,NW,320,2.0,4.0,78,0.00,,---,0.00,VWS V14.00,2013-03-23 07:01:00,
2013-03-23 03:02:00,26.1,20.2,29.96,NW,320,0.0,4.0,78,0.00,,---,0.00,VWS V14.00,2013-03-23 07:02:00,
2013-03-23 03:03:00,26.1,20.2,29.96,NW,318,2.0,6.0,78,0.00,,---,0.00,VWS V14.00,2013-03-23 07:03:00,
2013-03-23 03:05:00,26.1,20.2,29.96,NW,318,2.0,6.0,78,0.00,,---,0.00,VWS V14.00,2013-03-23 07:05:00,
2013-03-23 03:07:00,26.1,20.2,29.96,NW,316,2.0,6.0,78,0.00,,---,0.00,VWS V14.00,2013-03-23 07:07:00,
2013-03-23 03:08:00,26.1,20.2,29.96,NW,316,0.0,7.0,78,0.00,,---,0.00,VWS V14.00,2013-03-23 07:08:00,
2013-03-23 03:10:00,26.1,20.2,29.96,NW,316,0.0,7.0,78,0.00,,---,0.00,VWS V14.00,2013-03-23 07:10:00,
2013-03-23 03:12:00,26.1,20.2,29.96,NW,316,0.0,7.0,78,0.00,,---,0.00,VWS V14.00,2013-03-23 07:12:00,
2013-03-23 03:13:00,26.1,20.2,29.96,NW,316,0.0,7.0,78,0.00,,---,0.00,VWS V14.00,2013-03-23 07:13:00,
2013-03-23 03:15:00,26.0,20.1,29.96,NW,316,0.0,7.0,78,0.00,,---,0.00,VWS V14.00,2013-03-23 07:15:00,
2013-03-23 03:17:00,26.0,20.1,29.96,NNW,343,4.0,7.0,78,0.00,,---,0.00,VWS V14.00,2013-03-23 07:17:00,
2013-03-23 03:18:00,26.0,20.4,29.96,NNW,343,0.0,7.0,79,0.00,,---,0.00,VWS V14.00,2013-03-23 07:18:00,
2013-03-23 03:20:00,26.0,20.4,29.96,WNW,302,1.0,7.0,79,0.00,,---,0.00,VWS V14.00,2013-03-23 07:20:00,
2013-03-23 03:22:00,26.0,20.4,29.96,NW,316,2.0,7.0,79,0.00,,---,0.00,VWS V14.00,2013-03-23 07:22:00,
2013-03-23 03:23:00,26.0,20.4,29.96,NW,318,2.0,7.0,79,0.00,,---,0.00,VWS V14.00,2013-03-23 07:23:00,
2013-03-23 03:25:00,26.0,20.4,29.96,NW,320,4.0,7.0,79,0.00,,---,0.00,VWS V14.00,2013-03-23 07:25:00,
2013-03-23 03:27:00,26.0,20.4,29.96,NW,322,2.0,7.0,79,0.00,,---,0.00,VWS V14.00,2013-03-23 07:27:00,
2013-03-23 03:28:00,26.0,20.4,29.96,NW,322,0.0,7.0,79,0.00,,---,0.00,VWS V14.00,2013-03-23 07:28:00,
2013-03-23 03:30:00,25.8,20.2,29.95,NW,322,0.0,7.0,79,0.00,,---,0.00,VWS V14.00,2013-03-23 07:30:00,
2013-03-23 03:32:00,25.8,20.2,29.95,NNW,329,4.0,7.0,79,0.00,,---,0.00,VWS V14.00,2013-03-23 07:32:00,
2013-03-23 03:33:00,25.8,20.2,29.95,NNW,329,2.0,7.0,79,0.00,,---,0.00,VWS V14.00,2013-03-23 07:33:00,
2013-03-23 03:34:00,25.8,20.2,29.95,NNW,329,0.0,7.0,79,0.00,,---,0.00,VWS V14.00,2013-03-23 07:34:00,
2013-03-23 03:35:00,25.8,20.2,29.95,NNW,329,0.0,7.0,79,0.00,,---,0.00,VWS V14.00,2013-03-23 07:35:00,
2013-03-23 03:37:00,25.8,20.2,29.95,NNW,329,0.0,7.0,79,0.00,,---,0.00,VWS V14.00,2013-03-23 07:37:00,
2013-03-23 03:38:00,25.8,20.2,29.95,NNW,329,4.0,7.0,79,0.00,,---,0.00,VWS V14.00,2013-03-23 07:38:00,
2013-03-23 03:39:00,25.8,20.2,29.95,NNW,329,4.0,7.0,79,0.00,,---,0.00,VWS V14.00,2013-03-23 07:39:00,
2013-03-23 03:40:00,25.8,20.2,29.95,NNW,329,1.0,7.0,79,0.00,,---,0.00,VWS V14.00,2013-03-23 07:40:00,
2013-03-23 03:42:00,25.8,20.2,29.95,NNW,329,4.0,7.0,79,0.00,,---,0.00,VWS V14.00,2013-03-23 07:42:00,
2013-03-23 03:43:00,25.8,20.2,29.95,NNW,329,2.0,7.0,79,0.00,,---,0.00,VWS V14.00,2013-03-23 07:43:00,
2013-03-23 03:44:00,25.8,20.2,29.95,NNW,329,1.0,7.0,79,0.00,,---,0.00,VWS V14.00,2013-03-23 07:44:00,
2013-03-23 03:45:00,25.8,20.2,29.95,NNW,329,0.0,7.0,79,0.00,,---,0.00,VWS V14.00,2013-03-23 07:45:00,
2013-03-23 03:47:00,25.7,20.1,29.95,NNW,329,0.0,7.0,79,0.00,,---,0.00,VWS V14.00,2013-03-23 07:47:00,
2013-03-23 03:48:00,25.7,20.1,29.95,NNW,329,0.0,7.0,79,0.00,,---,0.00,VWS V14.00,2013-03-23 07:48:00,
2013-03-23 03:49:00,25.7,20.1,29.95,NNW,329,0.0,7.0,79,0.00,,---,0.00,VWS V14.00,2013-03-23 07:49:00,
2013-03-23 03:50:00,25.7,20.1,29.95,NNW,329,0.0,7.0,79,0.00,,---,0.00,VWS V14.00,2013-03-23 07:50:00,
2013-03-23 03:52:00,25.7,20.1,29.95,NNW,329,0.0,7.0,79,0.00,,---,0.00,VWS V14.00,2013-03-23 07:52:00,
2013-03-23 03:53:00,25.7,20.1,29.95,NW,315,6.0,7.0,79,0.00,,---,0.00,VWS V14.00,2013-03-23 07:53:00,
2013-03-23 03:54:00,25.7,20.1,29.95,NW,315,2.0,7.0,79,0.00,,---,0.00,VWS V14.00,2013-03-23 07:54:00,
2013-03-23 03:55:00,25.6,20.0,29.95,NW,315,0.0,7.0,79,0.00,,---,0.00,VWS V14.00,2013-03-23 07:55:00,
2013-03-23 03:58:00,25.6,20.0,29.95,NW,315,2.0,7.0,79,0.00,,---,0.00,VWS V14.00,2013-03-23 07:58:00,
2013-03-23 03:59:00,25.6,20.0,29.95,NW,315,2.0,7.0,79,0.00,,---,0.00,VWS V14.00,2013-03-23 07:59:00,
2013-03-23 04:00:00,25.6,20.0,29.95,NW,315,4.0,4.0,79,0.00,,---,0.00,VWS V14.00,2013-03-23 08:00:00,
2013-03-23 04:03:00,25.4,19.8,29.95,NW,315,4.0,4.0,79,0.00,,---,0.00,VWS V14.00,2013-03-23 08:03:00,
2013-03-23 04:04:00,25.4,19.8,29.95,NW,315,0.0,4.0,79,0.00,,---,0.00,VWS V14.00,2013-03-23 08:04:00,
2013-03-23 04:06:00,25.4,19.8,29.95,NW,315,2.0,4.0,79,0.00,,---,0.00,VWS V14.00,2013-03-23 08:06:00,
2013-03-23 04:08:00,25.3,19.7,29.95,NW,315,4.0,6.0,79,0.00,,---,0.00,VWS V14.00,2013-03-23 08:08:00,
2013-03-23 04:09:00,25.3,19.7,29.95,NW,315,1.0,6.0,79,0.00,,---,0.00,VWS V14.00,2013-03-23 08:09:00,
2013-03-23 04:11:00,25.3,19.7,29.95,NW,315,2.0,6.0,79,0.00,,---,0.00,VWS V14.00,2013-03-23 08:11:00,
2013-03-23 04:13:00,25.1,19.5,29.95,NW,315,2.0,6.0,79,0.00,,---,0.00,VWS V14.00,2013-03-23 08:13:00,
2013-03-23 04:14:00,25.1,19.8,29.95,NW,315,4.0,6.0,80,0.00,,---,0.00,VWS V14.00,2013-03-23 08:14:00,
2013-03-23 04:15:00,25.1,19.8,29.95,NW,313,6.0,6.0,80,0.00,,---,0.00,VWS V14.00,2013-03-23 08:15:00,
2013-03-23 04:16:00,25.1,19.8,29.95,NW,313,2.0,6.0,80,0.00,,---,0.00,VWS V14.00,2013-03-23 08:16:00,
2013-03-23 04:18:00,25.1,19.8,29.95,NW,312,4.0,7.0,80,0.00,,---,0.00,VWS V14.00,2013-03-23 08:18:00,
2013-03-23 04:19:00,25.0,19.7,29.95,NW,312,6.0,7.0,80,0.00,,---,0.00,VWS V14.00,2013-03-23 08:19:00,
2013-03-23 04:20:00,25.0,19.7,29.95,NW,312,4.0,7.0,80,0.00,,---,0.00,VWS V14.00,2013-03-23 08:20:00,
2013-03-23 04:21:00,25.0,19.7,29.95,NW,311,6.0,7.0,80,0.00,,---,0.00,VWS V14.00,2013-03-23 08:21:00,
2013-03-23 04:23:00,25.0,19.7,29.95,WNW,296,6.0,8.0,80,0.00,,---,0.00,VWS V14.00,2013-03-23 08:23:00,
2013-03-23 04:24:00,25.0,19.7,29.95,WNW,296,4.0,8.0,80,0.00,,---,0.00,VWS V14.00,2013-03-23 08:24:00,
2013-03-23 04:25:00,25.0,19.7,29.95,WNW,295,6.0,8.0,80,0.00,,---,0.00,VWS V14.00,2013-03-23 08:25:00,
2013-03-23 04:27:00,25.0,19.7,29.95,NW,313,6.0,8.0,80,0.00,,---,0.00,VWS V14.00,2013-03-23 08:27:00,
2013-03-23 04:28:00,25.0,20.0,29.95,NW,322,6.0,8.0,81,0.00,,---,0.00,VWS V14.00,2013-03-23 08:28:00,
2013-03-23 04:29:00,25.0,20.0,29.95,NW,322,6.0,8.0,81,0.00,,---,0.00,VWS V14.00,2013-03-23 08:29:00,
2013-03-23 04:30:00,25.0,20.0,29.95,NW,322,4.0,8.0,81,0.00,,---,0.00,VWS V14.00,2013-03-23 08:30:00,
2013-03-23 04:32:00,25.0,20.0,29.95,NW,322,0.0,8.0,81,0.00,,---,0.00,VWS V14.00,2013-03-23 08:32:00,
2013-03-23 04:33:00,25.0,20.0,29.95,NW,322,2.0,8.0,81,0.00,,---,0.00,VWS V14.00,2013-03-23 08:33:00,
2013-03-23 04:34:00,25.0,20.0,29.95,NW,319,2.0,8.0,81,0.00,,---,0.00,VWS V14.00,2013-03-23 08:34:00,
2013-03-23 04:35:00,25.0,20.0,29.95,NW,322,2.0,8.0,81,0.00,,---,0.00,VWS V14.00,2013-03-23 08:35:00,
2013-03-23 04:37:00,24.8,19.8,29.95,NW,322,2.0,8.0,81,0.00,,---,0.00,VWS V14.00,2013-03-23 08:37:00,
2013-03-23 04:39:00,24.8,19.8,29.95,NW,322,4.0,8.0,81,0.00,,---,0.00,VWS V14.00,2013-03-23 08:39:00,
2013-03-23 04:40:00,24.8,19.8,29.95,NW,322,0.0,8.0,81,0.00,,---,0.00,VWS V14.00,2013-03-23 08:40:00,
2013-03-23 04:42:00,24.8,19.8,29.95,NW,320,2.0,8.0,81,0.00,,---,0.00,VWS V14.00,2013-03-23 08:42:00,
2013-03-23 04:44:00,24.8,19.8,29.95,NW,313,2.0,8.0,81,0.00,,---,0.00,VWS V14.00,2013-03-23 08:44:00,
2013-03-23 04:45:00,24.7,19.7,29.95,NW,313,2.0,8.0,81,0.00,,---,0.00,VWS V14.00,2013-03-23 08:45:00,
2013-03-23 04:47:00,24.7,19.7,29.95,NW,313,0.0,8.0,81,0.00,,---,0.00,VWS V14.00,2013-03-23 08:47:00,
2013-03-23 04:49:00,24.7,19.7,29.95,NW,313,2.0,8.0,81,0.00,,---,0.00,VWS V14.00,2013-03-23 08:49:00,
2013-03-23 04:50:00,24.7,19.7,29.95,NW,313,2.0,8.0,81,0.00,,---,0.00,VWS V14.00,2013-03-23 08:50:00,
2013-03-23 04:52:00,24.5,19.5,29.95,NW,313,1.0,8.0,81,0.00,,---,0.00,VWS V14.00,2013-03-23 08:52:00,
2013-03-23 04:54:00,24.5,19.5,29.95,NW,313,2.0,8.0,81,0.00,,---,0.00,VWS V14.00,2013-03-23 08:54:00,
2013-03-23 04:55:00,24.5,19.5,29.95,NW,313,2.0,8.0,81,0.00,,---,0.00,VWS V14.00,2013-03-23 08:55:00,
2013-03-23 04:57:00,24.5,19.5,29.95,NW,313,4.0,8.0,81,0.00,,---,0.00,VWS V14.00,2013-03-23 08:57:00,
2013-03-23 04:59:00,24.5,19.5,29.95,NW,313,4.0,8.0,81,0.00,,---,0.00,VWS V14.00,2013-03-23 08:59:00,
2013-03-23 05:00:00,24.4,19.4,29.95,NW,313,4.0,8.0,81,0.00,,---,0.00,VWS V14.00,2013-03-23 09:00:00,
2013-03-23 05:02:00,24.4,19.7,29.95,NW,313,2.0,4.0,82,0.00,,---,0.00,VWS V14.00,2013-03-23 09:02:00,
2013-03-23 05:04:00,24.4,19.7,29.95,NW,313,4.0,4.0,82,0.00,,---,0.00,VWS V14.00,2013-03-23 09:04:00,
2013-03-23 05:05:00,24.4,19.7,29.95,NW,313,1.0,4.0,82,0.00,,---,0.00,VWS V14.00,2013-03-23 09:05:00,
2013-03-23 05:08:00,24.4,19.7,29.95,NW,309,1.0,4.0,82,0.00,,---,0.00,VWS V14.00,2013-03-23 09:08:00,
2013-03-23 05:09:00,24.2,19.5,29.95,NW,313,4.0,4.0,82,0.00,,---,0.00,VWS V14.00,2013-03-23 09:09:00,
2013-03-23 05:10:00,24.2,19.5,29.95,NW,313,2.0,4.0,82,0.00,,---,0.00,VWS V14.00,2013-03-23 09:10:00,
2013-03-23 05:13:00,24.2,19.5,29.95,NW,313,2.0,4.0,82,0.00,,---,0.00,VWS V14.00,2013-03-23 09:13:00,
2013-03-23 05:14:00,24.2,19.5,29.95,NW,313,0.0,4.0,82,0.00,,---,0.00,VWS V14.00,2013-03-23 09:14:00,
2013-03-23 05:15:00,24.2,19.5,29.95,NW,313,0.0,4.0,82,0.00,,---,0.00,VWS V14.00,2013-03-23 09:15:00,
2013-03-23 05:18:00,24.1,19.4,29.95,NW,313,0.0,4.0,82,0.00,,---,0.00,VWS V14.00,2013-03-23 09:18:00,
2013-03-23 05:19:00,24.1,19.4,29.95,NW,313,0.0,4.0,82,0.00,,---,0.00,VWS V14.00,2013-03-23 09:19:00,
2013-03-23 05:20:00,24.1,19.4,29.95,NW,313,0.0,4.0,82,0.00,,---,0.00,VWS V14.00,2013-03-23 09:20:00,
2013-03-23 05:23:00,24.1,19.4,29.95,NW,313,0.0,4.0,82,0.00,,---,0.00,VWS V14.00,2013-03-23 09:23:00,
2013-03-23 05:24:00,23.9,19.2,29.95,NW,313,0.0,4.0,82,0.00,,---,0.00,VWS V14.00,2013-03-23 09:24:00,
2013-03-23 05:25:00,23.9,19.2,29.95,NW,313,0.0,4.0,82,0.00,,---,0.00,VWS V14.00,2013-03-23 09:25:00,
2013-03-23 05:28:00,23.9,19.2,29.95,NW,313,0.0,4.0,82,0.00,,---,0.00,VWS V14.00,2013-03-23 09:28:00,
2013-03-23 05:29:00,23.9,19.2,29.96,NW,313,0.0,4.0,82,0.00,,---,0.00,VWS V14.00,2013-03-23 09:29:00,
2013-03-23 05:30:00,23.9,19.2,29.96,NW,313,0.0,4.0,82,0.00,,---,0.00,VWS V14.00,2013-03-23 09:30:00,
2013-03-23 05:33:00,23.8,19.1,29.96,NW,313,0.0,4.0,82,0.00,,---,0.00,VWS V14.00,2013-03-23 09:33:00,
2013-03-23 05:34:00,23.8,19.1,29.96,NW,313,0.0,4.0,82,0.00,,---,0.00,VWS V14.00,2013-03-23 09:34:00,
2013-03-23 05:35:00,23.8,19.1,29.96,NW,313,0.0,4.0,82,0.00,,---,0.00,VWS V14.00,2013-03-23 09:35:00,
2013-03-23 05:36:00,23.8,19.1,29.96,NW,313,0.0,4.0,82,0.00,,---,0.00,VWS V14.00,2013-03-23 09:36:00,
2013-03-23 05:38:00,23.8,19.1,29.96,NW,313,0.0,4.0,82,0.00,,---,0.00,VWS V14.00,2013-03-23 09:38:00,
2013-03-23 05:39:00,23.6,18.9,29.96,NW,313,0.0,4.0,82,0.00,,---,0.00,VWS V14.00,2013-03-23 09:39:00,
2013-03-23 05:40:00,23.6,18.9,29.96,NW,313,0.0,4.0,82,0.00,,---,0.00,VWS V14.00,2013-03-23 09:40:00,
2013-03-23 05:41:00,23.6,18.9,29.96,NW,313,0.0,4.0,82,0.00,,---,0.00,VWS V14.00,2013-03-23 09:41:00,
2013-03-23 05:43:00,23.6,18.9,29.96,NW,313,0.0,4.0,82,0.00,,---,0.00,VWS V14.00,2013-03-23 09:43:00,
2013-03-23 05:44:00,23.6,18.9,29.95,NW,313,0.0,4.0,82,0.00,,---,0.00,VWS V14.00,2013-03-23 09:44:00,
2013-03-23 05:46:00,23.6,18.9,29.95,NW,313,0.0,4.0,82,0.00,,---,0.00,VWS V14.00,2013-03-23 09:46:00,
2013-03-23 05:48:00,23.5,18.8,29.95,NW,315,0.0,4.0,82,0.00,,---,0.00,VWS V14.00,2013-03-23 09:48:00,
2013-03-23 05:50:00,23.5,19.1,29.95,NW,316,0.0,4.0,83,0.00,,---,0.00,VWS V14.00,2013-03-23 09:50:00,
2013-03-23 05:51:00,23.5,19.1,29.95,NW,316,0.0,4.0,83,0.00,,---,0.00,VWS V14.00,2013-03-23 09:51:00,
2013-03-23 05:53:00,23.5,19.1,29.95,NW,319,1.0,4.0,83,0.00,,---,0.00,VWS V14.00,2013-03-23 09:53:00,
2013-03-23 05:55:00,23.5,19.1,29.95,NW,319,0.0,4.0,83,0.00,,---,0.00,VWS V14.00,2013-03-23 09:55:00,
2013-03-23 05:56:00,23.5,19.1,29.95,NW,319,0.0,4.0,83,0.00,,---,0.00,VWS V14.00,2013-03-23 09:56:00,
2013-03-23 05:57:00,23.5,19.1,29.95,NW,319,0.0,4.0,83,0.00,,---,0.00,VWS V14.00,2013-03-23 09:57:00,
2013-03-23 05:58:00,23.5,19.1,29.95,NW,319,0.0,4.0,83,0.00,,---,0.00,VWS V14.00,2013-03-23 09:58:00,
2013-03-23 06:00:00,23.5,19.1,29.96,NW,319,0.0,4.0,83,0.00,,---,0.00,VWS V14.00,2013-03-23 10:00:00,
2013-03-23 06:01:00,23.5,19.1,29.96,NW,320,2.0,2.0,83,0.00,,---,0.00,VWS V14.00,2013-03-23 10:01:00,
2013-03-23 06:02:00,23.5,19.1,29.96,NW,320,2.0,4.0,83,0.00,,---,0.00,VWS V14.00,2013-03-23 10:02:00,
2013-03-23 06:03:00,23.5,19.1,29.96,NW,320,0.0,4.0,83,0.00,,---,0.00,VWS V14.00,2013-03-23 10:03:00,
2013-03-23 06:05:00,23.5,19.1,29.96,NW,320,2.0,4.0,83,0.00,,---,0.00,VWS V14.00,2013-03-23 10:05:00,
2013-03-23 06:06:00,23.5,19.1,29.96,NW,320,2.0,4.0,83,0.00,,---,0.00,VWS V14.00,2013-03-23 10:06:00,
2013-03-23 06:07:00,23.5,19.1,29.96,NW,320,2.0,4.0,83,0.00,,---,0.00,VWS V14.00,2013-03-23 10:07:00,
2013-03-23 06:08:00,23.5,19.1,29.96,NW,320,0.0,4.0,83,0.00,,---,0.00,VWS V14.00,2013-03-23 10:08:00,
2013-03-23 06:10:00,23.5,19.1,29.96,NW,320,0.0,4.0,83,0.00,,---,0.00,VWS V14.00,2013-03-23 10:10:00,
2013-03-23 06:11:00,23.3,19.2,29.96,NW,320,0.0,4.0,84,0.00,,---,0.00,VWS V14.00,2013-03-23 10:11:00,
2013-03-23 06:12:00,23.3,19.2,29.96,NW,320,0.0,4.0,84,0.00,,---,0.00,VWS V14.00,2013-03-23 10:12:00,
2013-03-23 06:14:00,23.3,18.9,29.96,NW,320,0.0,4.0,83,0.00,,---,0.00,VWS V14.00,2013-03-23 10:14:00,
2013-03-23 06:15:00,23.3,19.2,29.96,NW,320,0.0,4.0,84,0.00,,---,0.00,VWS V14.00,2013-03-23 10:15:00,
2013-03-23 06:16:00,23.3,19.2,29.96,NW,320,0.0,4.0,84,0.00,,---,0.00,VWS V14.00,2013-03-23 10:16:00,
2013-03-23 06:18:00,23.3,18.9,29.96,NW,320,0.0,4.0,83,0.00,,---,0.00,VWS V14.00,2013-03-23 10:18:00,
2013-03-23 06:19:00,23.3,18.9,29.96,NW,320,0.0,4.0,83,0.00,,---,0.00,VWS V14.00,2013-03-23 10:19:00,
2013-03-23 06:20:00,23.3,19.2,29.96,NW,320,0.0,4.0,84,0.00,,---,0.00,VWS V14.00,2013-03-23 10:20:00,
2013-03-23 06:22:00,23.2,19.1,29.96,NW,320,0.0,4.0,84,0.00,,---,0.00,VWS V14.00,2013-03-23 10:22:00,
2013-03-23 06:23:00,23.2,19.1,29.96,NW,320,0.0,4.0,84,0.00,,---,0.00,VWS V14.00,2013-03-23 10:23:00,
2013-03-23 06:24:00,23.2,19.1,29.96,NW,320,0.0,4.0,84,0.00,,---,0.00,VWS V14.00,2013-03-23 10:24:00,
2013-03-23 06:25:00,23.2,19.1,29.96,NW,320,0.0,4.0,84,0.00,,---,0.00,VWS V14.00,2013-03-23 10:25:00,
2013-03-23 06:27:00,23.2,19.1,29.96,NW,320,0.0,4.0,84,0.00,,---,0.00,VWS V14.00,2013-03-23 10:27:00,
2013-03-23 06:28:00,23.0,18.9,29.96,NW,320,0.0,4.0,84,0.00,,---,0.00,VWS V14.00,2013-03-23 10:28:00,
2013-03-23 06:29:00,23.0,18.9,29.96,NW,320,0.0,4.0,84,0.00,,---,0.00,VWS V14.00,2013-03-23 10:29:00,
2013-03-23 06:30:00,23.0,18.9,29.97,NW,320,0.0,4.0,84,0.00,,---,0.00,VWS V14.00,2013-03-23 10:30:00,
2013-03-23 06:32:00,23.0,18.9,29.97,NW,320,0.0,4.0,84,0.00,,---,0.00,VWS V14.00,2013-03-23 10:32:00,
2013-03-23 06:33:00,22.9,18.8,29.97,NW,320,0.0,4.0,84,0.00,,---,0.00,VWS V14.00,2013-03-23 10:33:00,
2013-03-23 06:34:00,22.9,18.8,29.97,NW,320,0.0,4.0,84,0.00,,---,0.00,VWS V14.00,2013-03-23 10:34:00,
2013-03-23 06:35:00,22.9,18.8,29.97,NW,320,0.0,4.0,84,0.00,,---,0.00,VWS V14.00,2013-03-23 10:35:00,
2013-03-23 06:37:00,22.9,18.8,29.97,NW,320,0.0,4.0,84,0.00,,---,0.00,VWS V14.00,2013-03-23 10:37:00,
2013-03-23 06:39:00,22.9,18.8,29.97,NW,320,0.0,4.0,84,0.00,,---,0.00,VWS V14.00,2013-03-23 10:39:00,
2013-03-23 06:41:00,22.7,18.6,29.97,NW,320,0.0,4.0,84,0.00,,---,0.00,VWS V14.00,2013-03-23 10:41:00,
2013-03-23 06:42:00,22.7,18.6,29.97,NW,320,0.0,4.0,84,0.00,,---,0.00,VWS V14.00,2013-03-23 10:42:00,
2013-03-23 06:44:00,22.7,18.6,29.97,NW,320,0.0,4.0,84,0.00,,---,0.00,VWS V14.00,2013-03-23 10:44:00,
2013-03-23 06:46:00,22.7,18.6,29.97,NW,320,0.0,4.0,84,0.00,,---,0.00,VWS V14.00,2013-03-23 10:46:00,
2013-03-23 06:47:00,22.5,18.4,29.97,NW,320,0.0,4.0,84,0.00,,---,0.00,VWS V14.00,2013-03-23 10:47:00,
2013-03-23 06:49:00,22.5,18.4,29.97,NW,320,0.0,4.0,84,0.00,,---,0.00,VWS V14.00,2013-03-23 10:49:00,
2013-03-23 06:51:00,22.5,18.4,29.97,NW,320,0.0,4.0,84,0.00,,---,0.00,VWS V14.00,2013-03-23 10:51:00,
2013-03-23 06:52:00,22.4,18.3,29.97,NW,320,0.0,4.0,84,0.00,,---,0.00,VWS V14.00,2013-03-23 10:52:00,
2013-03-23 06:54:00,22.4,18.3,29.97,NW,320,0.0,4.0,84,0.00,,---,0.00,VWS V14.00,2013-03-23 10:54:00,
2013-03-23 06:56:00,22.4,18.3,29.97,NW,320,0.0,4.0,84,0.00,,---,0.00,VWS V14.00,2013-03-23 10:56:00,
2013-03-23 06:57:00,22.2,18.1,29.97,NW,320,0.0,4.0,84,0.00,,---,0.00,VWS V14.00,2013-03-23 10:57:00,
2013-03-23 06:59:00,22.2,18.1,29.97,NW,320,0.0,4.0,84,0.00,,---,0.00,VWS V14.00,2013-03-23 10:59:00,
2013-03-23 07:02:00,22.2,18.1,29.98,NW,320,0.0,0.0,84,0.00,,---,0.00,VWS V14.00,2013-03-23 11:02:00,
2013-03-23 07:03:00,22.2,18.4,29.98,NW,320,0.0,0.0,85,0.00,,---,0.00,VWS V14.00,2013-03-23 11:03:00,
2013-03-23 07:04:00,22.2,18.4,29.98,NW,320,0.0,0.0,85,0.00,,---,0.00,VWS V14.00,2013-03-23 11:04:00,
2013-03-23 07:07:00,22.2,18.4,29.98,NW,320,1.0,4.0,85,0.00,,---,0.00,VWS V14.00,2013-03-23 11:07:00,
2013-03-23 07:08:00,22.2,18.4,29.98,NW,320,0.0,4.0,85,0.00,,---,0.00,VWS V14.00,2013-03-23 11:08:00,
2013-03-23 07:09:00,22.2,18.4,29.98,NW,320,0.0,4.0,85,0.00,,---,0.00,VWS V14.00,2013-03-23 11:09:00,
2013-03-23 07:10:00,22.2,18.4,29.98,NW,320,0.0,4.0,85,0.00,,---,0.00,VWS V14.00,2013-03-23 11:10:00,
2013-03-23 07:12:00,22.2,18.4,29.98,NW,320,0.0,4.0,85,0.00,,---,0.00,VWS V14.00,2013-03-23 11:12:00,
2013-03-23 07:13:00,22.2,18.4,29.98,NW,320,0.0,4.0,85,0.00,,---,0.00,VWS V14.00,2013-03-23 11:13:00,
2013-03-23 07:14:00,22.2,18.4,29.98,NW,320,0.0,4.0,85,0.00,,---,0.00,VWS V14.00,2013-03-23 11:14:00,
2013-03-23 07:15:00,22.2,18.4,29.98,NW,320,0.0,4.0,85,0.00,,---,0.00,VWS V14.00,2013-03-23 11:15:00,
2013-03-23 07:17:00,22.2,18.4,29.98,NW,320,0.0,4.0,85,0.00,,---,0.00,VWS V14.00,2013-03-23 11:17:00,
2013-03-23 07:19:00,22.2,18.4,29.98,NW,320,0.0,4.0,85,0.00,,---,0.00,VWS V14.00,2013-03-23 11:19:00,
2013-03-23 07:20:00,22.1,18.3,29.98,NW,320,0.0,4.0,85,0.00,,---,0.00,VWS V14.00,2013-03-23 11:20:00,
2013-03-23 07:23:00,22.1,18.3,29.98,NW,320,0.0,4.0,85,0.00,,---,0.00,VWS V14.00,2013-03-23 11:23:00,
2013-03-23 07:24:00,22.1,18.3,29.98,NW,320,0.0,4.0,85,0.00,,---,0.00,VWS V14.00,2013-03-23 11:24:00,
2013-03-23 07:25:00,22.1,18.3,29.98,NW,320,0.0,4.0,85,0.00,,---,0.00,VWS V14.00,2013-03-23 11:25:00,
2013-03-23 07:28:00,21.9,18.1,29.98,NW,320,0.0,4.0,85,0.00,,---,0.00,VWS V14.00,2013-03-23 11:28:00,
2013-03-23 07:29:00,21.9,18.1,29.98,NW,320,0.0,4.0,85,0.00,,---,0.00,VWS V14.00,2013-03-23 11:29:00,
2013-03-23 07:30:00,21.9,18.1,29.99,NW,320,0.0,4.0,85,0.00,,---,0.00,VWS V14.00,2013-03-23 11:30:00,
2013-03-23 07:33:00,21.9,18.1,29.99,NW,320,0.0,4.0,85,0.00,,---,0.00,VWS V14.00,2013-03-23 11:33:00,
2013-03-23 07:34:00,21.9,18.1,29.99,NW,320,0.0,4.0,85,0.00,,---,0.00,VWS V14.00,2013-03-23 11:34:00,
2013-03-23 07:36:00,21.9,18.1,29.99,NW,320,0.0,4.0,85,0.00,,---,0.00,VWS V14.00,2013-03-23 11:36:00,
2013-03-23 07:38:00,21.8,18.0,29.99,NW,320,0.0,4.0,85,0.00,,---,0.00,VWS V14.00,2013-03-23 11:38:00,
2013-03-23 07:39:00,21.8,18.0,29.99,NW,320,0.0,4.0,85,0.00,,---,0.00,VWS V14.00,2013-03-23 11:39:00,
2013-03-23 07:41:00,21.8,18.0,29.99,NW,320,0.0,4.0,85,0.00,,---,0.00,VWS V14.00,2013-03-23 11:41:00,
2013-03-23 07:43:00,21.8,18.0,29.99,NW,320,0.0,4.0,85,0.00,,---,0.00,VWS V14.00,2013-03-23 11:43:00,
2013-03-23 07:44:00,21.8,18.0,29.99,NW,320,0.0,4.0,85,0.00,,---,0.00,VWS V14.00,2013-03-23 11:44:00,
2013-03-23 07:47:00,21.8,18.3,29.99,NW,320,0.0,4.0,86,0.00,,---,0.00,VWS V14.00,2013-03-23 11:47:00,
2013-03-23 07:48:00,21.8,18.3,29.99,NW,320,0.0,4.0,86,0.00,,---,0.00,VWS V14.00,2013-03-23 11:48:00,
2013-03-23 07:49:00,21.6,18.1,29.99,NW,320,0.0,4.0,86,0.00,,---,0.00,VWS V14.00,2013-03-23 11:49:00,
2013-03-23 07:52:00,21.6,18.1,29.99,NW,320,0.0,4.0,86,0.00,,---,0.00,VWS V14.00,2013-03-23 11:52:00,
2013-03-23 07:53:00,21.6,18.1,29.99,NW,320,0.0,4.0,86,0.00,,---,0.00,VWS V14.00,2013-03-23 11:53:00,
2013-03-23 07:54:00,21.6,18.1,29.99,NW,320,0.0,4.0,86,0.00,,---,0.00,VWS V14.00,2013-03-23 11:54:00,
2013-03-23 07:57:00,21.6,18.1,29.99,NW,320,0.0,4.0,86,0.00,,---,0.00,VWS V14.00,2013-03-23 11:57:00,
2013-03-23 07:58:00,21.6,18.1,29.99,NW,320,0.0,4.0,86,0.00,,---,0.00,VWS V14.00,2013-03-23 11:58:00,
2013-03-23 07:59:00,21.6,18.1,29.99,NW,320,0.0,4.0,86,0.00,,---,0.00,VWS V14.00,2013-03-23 11:59:00,
2013-03-23 08:03:00,21.6,18.1,29.99,NW,320,0.0,0.0,86,0.00,,---,0.00,VWS V14.00,2013-03-23 12:03:00,
2013-03-23 08:04:00,21.6,18.1,29.99,NW,320,0.0,0.0,86,0.00,,---,0.00,VWS V14.00,2013-03-23 12:04:00,
2013-03-23 08:08:00,21.6,18.1,29.99,NW,320,0.0,0.0,86,0.00,,---,0.00,VWS V14.00,2013-03-23 12:08:00,
2013-03-23 08:09:00,21.6,18.1,29.99,NW,320,0.0,0.0,86,0.00,,---,0.00,VWS V14.00,2013-03-23 12:09:00,
2013-03-23 08:10:00,21.6,18.1,29.99,NW,320,0.0,0.0,86,0.00,,---,0.00,VWS V14.00,2013-03-23 12:10:00,
2013-03-23 08:14:00,21.8,18.3,29.99,NW,320,0.0,0.0,86,0.00,,---,0.00,VWS V14.00,2013-03-23 12:14:00,
2013-03-23 08:15:00,21.8,18.3,29.99,NW,320,0.0,0.0,86,0.00,,---,0.00,VWS V14.00,2013-03-23 12:15:00,
2013-03-23 08:19:00,21.8,18.3,29.99,NW,320,0.0,0.0,86,0.00,,---,0.00,VWS V14.00,2013-03-23 12:19:00,
2013-03-23 08:20:00,21.8,18.3,29.99,NW,320,0.0,0.0,86,0.00,,---,0.00,VWS V14.00,2013-03-23 12:20:00,
2013-03-23 08:24:00,21.9,18.6,29.99,NW,323,0.0,2.0,87,0.00,,---,0.00,VWS V14.00,2013-03-23 12:24:00,
2013-03-23 08:25:00,21.9,18.6,29.99,NW,323,0.0,2.0,87,0.00,,---,0.00,VWS V14.00,2013-03-23 12:25:00,
2013-03-23 08:26:00,21.9,18.6,29.99,NW,323,0.0,2.0,87,0.00,,---,0.00,VWS V14.00,2013-03-23 12:26:00,
2013-03-23 08:29:00,22.1,18.8,30.00,NW,325,0.0,2.0,87,0.00,,---,0.00,VWS V14.00,2013-03-23 12:29:00,
2013-03-23 08:30:00,22.1,18.8,30.00,NW,325,0.0,2.0,87,0.00,,---,0.00,VWS V14.00,2013-03-23 12:30:00,
2013-03-23 08:31:00,22.2,18.9,30.00,NW,325,0.0,2.0,87,0.00,,---,0.00,VWS V14.00,2013-03-23 12:31:00,
2013-03-23 08:34:00,22.4,19.1,30.00,NW,325,0.0,2.0,87,0.00,,---,0.00,VWS V14.00,2013-03-23 12:34:00,
2013-03-23 08:35:00,22.4,19.1,30.00,NW,325,0.0,2.0,87,0.00,,---,0.00,VWS V14.00,2013-03-23 12:35:00,
2013-03-23 08:37:00,22.5,19.2,30.00,NNW,329,0.0,2.0,87,0.00,,---,0.00,VWS V14.00,2013-03-23 12:37:00,
2013-03-23 08:39:00,22.7,19.4,30.00,NNW,329,0.0,2.0,87,0.00,,---,0.00,VWS V14.00,2013-03-23 12:39:00,
2013-03-23 08:40:00,22.9,19.9,30.00,NW,325,0.0,2.0,88,0.00,,---,0.00,VWS V14.00,2013-03-23 12:40:00,
2013-03-23 08:42:00,22.9,19.9,30.00,NNW,329,0.0,2.0,88,0.00,,---,0.00,VWS V14.00,2013-03-23 12:42:00,
2013-03-23 08:44:00,23.0,20.0,30.00,NNW,329,0.0,2.0,88,0.00,,---,0.00,VWS V14.00,2013-03-23 12:44:00,
2013-03-23 08:45:00,23.0,20.0,30.00,NNW,329,0.0,2.0,88,0.00,,---,0.00,VWS V14.00,2013-03-23 12:45:00,
2013-03-23 08:47:00,23.2,20.2,30.00,NNW,329,0.0,2.0,88,0.00,,---,0.00,VWS V14.00,2013-03-23 12:47:00,
2013-03-23 08:50:00,23.3,20.3,30.00,NNW,329,0.0,2.0,88,0.00,,---,0.00,VWS V14.00,2013-03-23 12:50:00,
2013-03-23 08:52:00,23.6,20.6,30.00,NNW,329,0.0,2.0,88,0.00,,---,0.00,VWS V14.00,2013-03-23 12:52:00,
2013-03-23 08:55:00,23.8,20.8,30.00,NNW,329,0.0,2.0,88,0.00,,---,0.00,VWS V14.00,2013-03-23 12:55:00,
2013-03-23 08:57:00,23.9,21.1,30.00,NNW,329,0.0,2.0,89,0.00,,---,0.00,VWS V14.00,2013-03-23 12:57:00,
2013-03-23 09:00:00,24.2,21.4,30.00,NNW,329,0.0,0.0,89,0.00,,---,0.00,VWS V14.00,2013-03-23 13:00:00,
2013-03-23 09:02:00,24.4,21.6,30.00,NNW,329,0.0,0.0,89,0.00,,---,0.00,VWS V14.00,2013-03-23 13:02:00,
2013-03-23 09:05:00,24.8,22.0,30.00,North,10,0.0,7.0,89,0.00,,---,0.00,VWS V14.00,2013-03-23 13:05:00,
2013-03-23 09:06:00,24.8,22.0,30.00,North,10,4.0,7.0,89,0.00,,---,0.00,VWS V14.00,2013-03-23 13:06:00,
2013-03-23 09:07:00,25.1,22.3,30.00,NNE,13,0.0,7.0,89,0.00,,---,0.00,VWS V14.00,2013-03-23 13:07:00,
2013-03-23 09:10:00,25.6,22.8,30.00,North,6,4.0,7.0,89,0.00,,---,0.00,VWS V14.00,2013-03-23 13:10:00,
2013-03-23 09:11:00,25.7,22.9,30.00,NNE,13,4.0,7.0,89,0.00,,---,0.00,VWS V14.00,2013-03-23 13:11:00,
2013-03-23 09:12:00,26.0,23.2,30.00,North,10,2.0,7.0,89,0.00,,---,0.00,VWS V14.00,2013-03-23 13:12:00,
2013-03-23 09:15:00,26.3,23.5,30.01,North,354,7.0,8.0,89,0.00,,---,0.00,VWS V14.00,2013-03-23 13:15:00,
2013-03-23 09:16:00,26.4,23.6,30.01,North,353,6.0,8.0,89,0.00,,---,0.00,VWS V14.00,2013-03-23 13:16:00,
2013-03-23 09:17:00,26.6,23.8,30.01,North,3,4.0,8.0,89,0.00,,---,0.00,VWS V14.00,2013-03-23 13:17:00,
2013-03-23 09:20:00,26.9,24.1,30.01,North,3,0.0,8.0,89,0.00,,---,0.00,VWS V14.00,2013-03-23 13:20:00,
2013-03-23 09:21:00,26.9,24.1,30.01,North,3,0.0,8.0,89,0.00,,---,0.00,VWS V14.00,2013-03-23 13:21:00,
2013-03-23 09:22:00,27.0,24.2,30.01,North,3,0.0,8.0,89,0.00,,---,0.00,VWS V14.00,2013-03-23 13:22:00,
2013-03-23 09:25:00,27.2,24.4,30.01,North,353,6.0,8.0,89,0.00,,---,0.00,VWS V14.00,2013-03-23 13:25:00,
2013-03-23 09:26:00,27.3,24.5,30.01,NNW,339,6.0,8.0,89,0.00,,---,0.00,VWS V14.00,2013-03-23 13:26:00,
2013-03-23 09:27:00,27.3,24.5,30.01,NNW,333,6.0,8.0,89,0.00,,---,0.00,VWS V14.00,2013-03-23 13:27:00,
2013-03-23 09:30:00,27.6,24.8,30.00,NNE,16,7.0,9.0,89,0.00,,---,0.00,VWS V14.00,2013-03-23 13:30:00,
2013-03-23 09:31:00,27.8,24.7,30.00,NNW,343,8.0,9.0,88,0.00,,---,0.00,VWS V14.00,2013-03-23 13:31:00,
2013-03-23 09:32:00,27.8,24.7,30.00,North,6,4.0,9.0,88,0.00,,---,0.00,VWS V14.00,2013-03-23 13:32:00,
2013-03-23 09:33:00,27.8,24.7,30.00,NNW,346,7.0,9.0,88,0.00,,---,0.00,VWS V14.00,2013-03-23 13:33:00,
2013-03-23 09:36:00,27.9,24.8,30.00,North,0,7.0,9.0,88,0.00,,---,0.00,VWS V14.00,2013-03-23 13:36:00,
2013-03-23 09:37:00,27.9,24.8,30.00,North,0,4.0,9.0,88,0.00,,---,0.00,VWS V14.00,2013-03-23 13:37:00,
2013-03-23 09:38:00,27.9,24.8,30.00,North,350,7.0,9.0,88,0.00,,---,0.00,VWS V14.00,2013-03-23 13:38:00,
2013-03-23 09:41:00,28.1,24.7,30.00,NNE,20,6.0,9.0,87,0.00,,---,0.00,VWS V14.00,2013-03-23 13:41:00,
2013-03-23 09:42:00,28.1,24.5,30.00,NNE,17,4.0,9.0,86,0.00,,---,0.00,VWS V14.00,2013-03-23 13:42:00,
2013-03-23 09:43:00,28.1,24.5,30.00,NNE,17,0.0,9.0,86,0.00,,---,0.00,VWS V14.00,2013-03-23 13:43:00,
2013-03-23 09:46:00,28.2,24.6,30.01,NNW,340,8.0,9.0,86,0.00,,---,0.00,VWS V14.00,2013-03-23 13:46:00,
2013-03-23 09:47:00,28.4,24.8,30.01,North,0,8.0,11.0,86,0.00,,---,0.00,VWS V14.00,2013-03-23 13:47:00,
2013-03-23 09:48:00,28.4,24.5,30.01,North,354,6.0,11.0,85,0.00,,---,0.00,VWS V14.00,2013-03-23 13:48:00,
2013-03-23 09:51:00,28.4,24.5,30.01,North,10,7.0,11.0,85,0.00,,---,0.00,VWS V14.00,2013-03-23 13:51:00,
2013-03-23 09:53:00,28.5,24.3,30.01,North,6,0.0,11.0,84,0.00,,---,0.00,VWS V14.00,2013-03-23 13:53:00,
2013-03-23 09:56:00,28.8,24.6,30.01,NW,326,4.0,11.0,84,0.00,,---,0.00,VWS V14.00,2013-03-23 13:56:00,
2013-03-23 09:58:00,29.0,24.5,30.01,NW,320,0.0,11.0,83,0.00,,---,0.00,VWS V14.00,2013-03-23 13:58:00,
2013-03-23 10:01:00,29.1,24.6,30.02,NNW,343,1.0,9.0,83,0.00,,---,0.00,VWS V14.00,2013-03-23 14:01:00,
2013-03-23 10:02:00,29.1,24.6,30.02,North,3,4.0,9.0,83,0.00,,---,0.00,VWS V14.00,2013-03-23 14:02:00,
2013-03-23 10:03:00,29.1,24.3,30.02,North,10,1.0,9.0,82,0.00,,---,0.00,VWS V14.00,2013-03-23 14:03:00,
2013-03-23 10:07:00,29.4,24.3,30.02,North,0,0.0,9.0,81,0.00,,---,0.00,VWS V14.00,2013-03-23 14:07:00,
2013-03-23 10:08:00,29.4,24.3,30.02,NNE,24,4.0,9.0,81,0.00,,---,0.00,VWS V14.00,2013-03-23 14:08:00,
2013-03-23 10:12:00,29.4,23.7,30.02,NNE,20,2.0,9.0,79,0.00,,---,0.00,VWS V14.00,2013-03-23 14:12:00,
2013-03-23 10:13:00,29.5,23.5,30.02,NNE,20,2.0,9.0,78,0.00,,---,0.00,VWS V14.00,2013-03-23 14:13:00,
2013-03-23 10:17:00,29.8,23.5,30.02,WNW,288,4.0,9.0,77,0.00,,---,0.00,VWS V14.00,2013-03-23 14:17:00,
2013-03-23 10:18:00,30.0,23.7,30.02,WNW,296,4.0,9.0,77,0.00,,---,0.00,VWS V14.00,2013-03-23 14:18:00,
2013-03-23 10:22:00,30.1,23.5,30.02,NNW,333,6.0,9.0,76,0.00,,---,0.00,VWS V14.00,2013-03-23 14:22:00,
2013-03-23 10:23:00,30.1,23.1,30.02,WNW,302,4.0,9.0,75,0.00,,---,0.00,VWS V14.00,2013-03-23 14:23:00,
2013-03-23 10:24:00,30.3,23.3,30.02,NW,319,2.0,9.0,75,0.00,,---,0.00,VWS V14.00,2013-03-23 14:24:00,
2013-03-23 10:28:00,30.3,23.0,30.02,North,0,2.0,9.0,74,0.00,,---,0.00,VWS V14.00,2013-03-23 14:28:00,
2013-03-23 10:29:00,30.4,23.1,30.02,NW,308,8.0,9.0,74,0.00,,---,0.00,VWS V14.00,2013-03-23 14:29:00,
2013-03-23 10:33:00,30.4,22.8,30.03,WSW,244,6.0,9.0,73,0.00,,---,0.00,VWS V14.00,2013-03-23 14:33:00,
2013-03-23 10:34:00,30.4,22.8,30.03,WNW,282,6.0,9.0,73,0.00,,---,0.00,VWS V14.00,2013-03-23 14:34:00,
2013-03-23 10:38:00,30.6,23.0,30.03,North,0,4.0,9.0,73,0.00,,---,0.00,VWS V14.00,2013-03-23 14:38:00,
2013-03-23 10:39:00,30.6,22.7,30.03,North,0,2.0,9.0,72,0.00,,---,0.00,VWS V14.00,2013-03-23 14:39:00,
2013-03-23 10:43:00,30.6,22.3,30.03,North,3,6.0,9.0,71,0.00,,---,0.00,VWS V14.00,2013-03-23 14:43:00,
2013-03-23 10:44:00,30.6,22.3,30.03,North,6,4.0,9.0,71,0.00,,---,0.00,VWS V14.00,2013-03-23 14:44:00,
2013-03-23 10:48:00,30.6,22.0,30.03,North,0,0.0,9.0,70,0.00,,---,0.00,VWS V14.00,2013-03-23 14:48:00,
2013-03-23 10:49:00,30.6,22.0,30.03,NNW,346,2.0,9.0,70,0.00,,---,0.00,VWS V14.00,2013-03-23 14:49:00,
2013-03-23 10:54:00,30.4,21.5,30.03,NNE,13,4.0,9.0,69,0.00,,---,0.00,VWS V14.00,2013-03-23 14:54:00,
2013-03-23 10:59:00,30.4,21.5,30.03,North,3,1.0,9.0,69,0.00,,---,0.00,VWS V14.00,2013-03-23 14:59:00,
2013-03-23 11:04:00,30.6,21.6,30.03,NW,308,1.0,6.0,69,0.00,,---,0.00,VWS V14.00,2013-03-23 15:04:00,
2013-03-23 11:05:00,30.7,21.8,30.03,NW,308,2.0,6.0,69,0.00,,---,0.00,VWS V14.00,2013-03-23 15:05:00,
2013-03-23 11:09:00,30.9,21.9,30.03,NW,309,0.0,6.0,69,0.00,,---,0.00,VWS V14.00,2013-03-23 15:09:00,
2013-03-23 11:10:00,30.9,21.9,30.03,NW,309,0.0,6.0,69,0.00,,---,0.00,VWS V14.00,2013-03-23 15:10:00,
2013-03-23 11:14:00,30.9,21.9,30.03,WNW,296,6.0,8.0,69,0.00,,---,0.00,VWS V14.00,2013-03-23 15:14:00,
2013-03-23 11:15:00,30.9,21.9,30.03,WNW,302,7.0,8.0,69,0.00,,---,0.00,VWS V14.00,2013-03-23 15:15:00,
2013-03-23 11:19:00,31.0,22.0,30.03,NW,326,2.0,9.0,69,0.00,,---,0.00,VWS V14.00,2013-03-23 15:19:00,
2013-03-23 11:20:00,31.2,22.2,30.03,NW,325,4.0,9.0,69,0.00,,---,0.00,VWS V14.00,2013-03-23 15:20:00,
2013-03-23 11:24:00,31.3,22.3,30.03,NNE,27,2.0,9.0,69,0.00,,---,0.00,VWS V14.00,2013-03-23 15:24:00,
2013-03-23 11:25:00,31.3,22.3,30.03,NNE,27,1.0,9.0,69,0.00,,---,0.00,VWS V14.00,2013-03-23 15:25:00,
2013-03-23 11:30:00,31.5,22.2,30.03,North,3,2.0,9.0,68,0.00,,---,0.00,VWS V14.00,2013-03-23 15:30:00,
2013-03-23 11:31:00,31.5,21.8,30.03,North,3,1.0,9.0,67,0.00,,---,0.00,VWS V14.00,2013-03-23 15:31:00,
2013-03-23 11:35:00,31.6,21.9,30.03,NNW,344,4.0,9.0,67,0.00,,---,0.00,VWS V14.00,2013-03-23 15:35:00,
2013-03-23 11:37:00,31.6,21.6,30.03,WNW,295,1.0,9.0,66,0.00,,---,0.00,VWS V14.00,2013-03-23 15:37:00,
2013-03-23 11:40:00,31.6,21.6,30.03,NNW,333,1.0,9.0,66,0.00,,---,0.00,VWS V14.00,2013-03-23 15:40:00,
2013-03-23 11:42:00,31.6,21.6,30.03,NNE,13,4.0,9.0,66,0.00,,---,0.00,VWS V14.00,2013-03-23 15:42:00,
2013-03-23 11:45:00,31.8,21.8,30.03,North,3,6.0,9.0,66,0.00,,---,0.00,VWS V14.00,2013-03-23 15:45:00,
2013-03-23 11:47:00,31.8,21.8,30.03,NNE,31,4.0,9.0,66,0.00,,---,0.00,VWS V14.00,2013-03-23 15:47:00,
2013-03-23 11:50:00,31.8,21.4,30.03,North,357,8.0,9.0,65,0.00,,---,0.00,VWS V14.00,2013-03-23 15:50:00,
2013-03-23 11:52:00,31.8,21.4,30.03,NW,316,0.0,9.0,65,0.00,,---,0.00,VWS V14.00,2013-03-23 15:52:00,
2013-03-23 11:55:00,31.9,21.5,30.03,WNW,302,7.0,9.0,65,0.00,,---,0.00,VWS V14.00,2013-03-23 15:55:00,
2013-03-23 11:57:00,32.1,21.7,30.03,NW,323,2.0,9.0,65,0.00,,---,0.00,VWS V14.00,2013-03-23 15:57:00,
2013-03-23 12:00:00,32.1,21.7,30.03,NW,323,0.0,9.0,65,0.00,,---,0.00,VWS V14.00,2013-03-23 16:00:00,
2013-03-23 12:02:00,32.1,21.3,30.03,North,3,0.0,2.0,64,0.00,,---,0.00,VWS V14.00,2013-03-23 16:02:00,
2013-03-23 12:05:00,32.5,22.4,30.03,NNW,329,0.0,6.0,66,0.00,,---,0.00,VWS V14.00,2013-03-23 16:05:00,
2013-03-23 12:07:00,32.7,22.2,30.03,NNW,329,0.0,6.0,65,0.00,,---,0.00,VWS V14.00,2013-03-23 16:07:00,
2013-03-23 12:10:00,32.8,22.3,30.03,NNE,17,2.0,6.0,65,0.00,,---,0.00,VWS V14.00,2013-03-23 16:10:00,
2013-03-23 12:11:00,32.8,22.3,30.03,NNE,20,4.0,6.0,65,0.00,,---,0.00,VWS V14.00,2013-03-23 16:11:00,
2013-03-23 12:12:00,32.7,21.9,30.03,NNE,20,2.0,6.0,64,0.00,,---,0.00,VWS V14.00,2013-03-23 16:12:00,
2013-03-23 12:15:00,32.7,21.5,30.03,NNE,20,0.0,6.0,63,0.00,,---,0.00,VWS V14.00,2013-03-23 16:15:00,
2013-03-23 12:16:00,32.7,21.5,30.03,North,10,0.0,6.0,63,0.00,,---,0.00,VWS V14.00,2013-03-23 16:16:00,
2013-03-23 12:17:00,32.8,22.0,30.03,NNW,332,6.0,8.0,64,0.00,,---,0.00,VWS V14.00,2013-03-23 16:17:00,
2013-03-23 12:21:00,32.8,22.0,30.03,WNW,284,8.0,8.0,64,0.00,,---,0.00,VWS V14.00,2013-03-23 16:21:00,
2013-03-23 12:23:00,32.8,22.3,30.03,WNW,289,6.0,8.0,65,0.00,,---,0.00,VWS V14.00,2013-03-23 16:23:00,
2013-03-23 12:26:00,32.9,22.4,30.03,WNW,291,9.0,9.0,65,0.00,,---,0.00,VWS V14.00,2013-03-23 16:26:00,
2013-03-23 12:27:00,32.9,22.4,30.03,WNW,284,8.0,10.0,65,0.00,,---,0.00,VWS V14.00,2013-03-23 16:27:00,
2013-03-23 12:28:00,32.9,22.4,30.03,WNW,292,4.0,10.0,65,0.00,,---,0.00,VWS V14.00,2013-03-23 16:28:00,
2013-03-23 12:32:00,32.9,22.4,30.03,WNW,288,2.0,10.0,65,0.00,,---,0.00,VWS V14.00,2013-03-23 16:32:00,
2013-03-23 12:33:00,32.9,22.4,30.03,NW,313,4.0,10.0,65,0.00,,---,0.00,VWS V14.00,2013-03-23 16:33:00,
2013-03-23 12:37:00,33.4,22.9,30.03,NW,308,4.0,10.0,65,0.00,,---,0.00,VWS V14.00,2013-03-23 16:37:00,
2013-03-23 12:38:00,33.5,23.0,30.03,NNW,340,4.0,10.0,65,0.00,,---,0.00,VWS V14.00,2013-03-23 16:38:00,
2013-03-23 12:42:00,33.7,23.2,30.03,NW,315,8.0,11.0,65,0.00,,---,0.00,VWS V14.00,2013-03-23 16:42:00,
2013-03-23 12:43:00,33.7,23.2,30.03,WNW,294,7.0,11.0,65,0.00,,---,0.00,VWS V14.00,2013-03-23 16:43:00,
2013-03-23 12:47:00,33.8,22.9,30.04,NW,312,6.0,11.0,64,0.00,,---,0.00,VWS V14.00,2013-03-23 16:47:00,
2013-03-23 12:48:00,33.8,22.9,30.04,NNW,335,1.0,11.0,64,0.00,,---,0.00,VWS V14.00,2013-03-23 16:48:00,
2013-03-23 12:52:00,33.8,22.2,30.04,NNW,347,2.0,11.0,62,0.00,,---,0.00,VWS V14.00,2013-03-23 16:52:00,
2013-03-23 12:53:00,33.8,22.2,30.04,NNW,347,2.0,11.0,62,0.00,,---,0.00,VWS V14.00,2013-03-23 16:53:00,
2013-03-23 12:58:00,33.8,21.8,30.04,North,3,1.0,11.0,61,0.00,,---,0.00,VWS V14.00,2013-03-23 16:58:00,
2013-03-23 13:03:00,33.7,21.7,30.03,NE,34,6.0,10.0,61,0.00,,---,0.00,VWS V14.00,2013-03-23 17:03:00,
2013-03-23 13:08:00,33.8,22.2,30.03,West,280,10.0,10.0,62,0.00,,---,0.00,VWS V14.00,2013-03-23 17:08:00,
2013-03-23 13:09:00,33.8,22.2,30.03,West,272,7.0,10.0,62,0.00,,---,0.00,VWS V14.00,2013-03-23 17:09:00,
2013-03-23 13:13:00,33.8,22.5,30.03,West,260,0.0,11.0,63,0.00,,---,0.00,VWS V14.00,2013-03-23 17:13:00,
2013-03-23 13:14:00,33.8,22.5,30.03,WNW,296,0.0,11.0,63,0.00,,---,0.00,VWS V14.00,2013-03-23 17:14:00,
2013-03-23 13:18:00,33.8,22.5,30.03,North,0,6.0,11.0,63,0.00,,---,0.00,VWS V14.00,2013-03-23 17:18:00,
2013-03-23 13:19:00,34.0,22.7,30.03,WNW,295,6.0,11.0,63,0.00,,---,0.00,VWS V14.00,2013-03-23 17:19:00,
2013-03-23 13:23:00,34.1,22.8,30.03,West,274,2.0,11.0,63,0.00,,---,0.00,VWS V14.00,2013-03-23 17:23:00,
2013-03-23 13:24:00,34.1,22.8,30.03,West,280,2.0,11.0,63,0.00,,---,0.00,VWS V14.00,2013-03-23 17:24:00,
2013-03-23 13:28:00,34.3,22.6,30.03,North,0,2.0,14.0,62,0.00,,---,0.00,VWS V14.00,2013-03-23 17:28:00,
2013-03-23 13:29:00,34.3,22.6,30.03,North,0,2.0,14.0,62,0.00,,---,0.00,VWS V14.00,2013-03-23 17:29:00,
2013-03-23 13:33:00,34.4,22.7,30.03,NNE,30,4.0,14.0,62,0.00,,---,0.00,VWS V14.00,2013-03-23 17:33:00,
2013-03-23 13:34:00,34.6,22.9,30.03,NNE,30,2.0,14.0,62,0.00,,---,0.00,VWS V14.00,2013-03-23 17:34:00,
2013-03-23 13:38:00,35.2,22.7,30.03,NNW,340,6.0,14.0,60,0.00,,---,0.00,VWS V14.00,2013-03-23 17:38:00,
2013-03-23 13:39:00,35.2,22.7,30.03,NW,305,8.0,14.0,60,0.00,,---,0.00,VWS V14.00,2013-03-23 17:39:00,
2013-03-23 13:43:00,35.8,23.7,30.03,West,278,4.0,14.0,61,0.00,,---,0.00,VWS V14.00,2013-03-23 17:43:00,
2013-03-23 13:44:00,35.8,23.7,30.03,WNW,289,7.0,14.0,61,0.00,,---,0.00,VWS V14.00,2013-03-23 17:44:00,
2013-03-23 13:48:00,36.5,24.7,30.03,NW,304,8.0,14.0,62,0.00,,---,0.00,VWS V14.00,2013-03-23 17:48:00,
2013-03-23 13:49:00,36.5,24.7,30.03,North,350,2.0,14.0,62,0.00,,---,0.00,VWS V14.00,2013-03-23 17:49:00,
2013-03-23 13:50:00,36.6,24.4,30.03,WNW,298,6.0,14.0,61,0.00,,---,0.00,VWS V14.00,2013-03-23 17:50:00,
2013-03-23 13:53:00,36.8,23.8,30.03,North,357,0.0,14.0,59,0.00,,---,0.00,VWS V14.00,2013-03-23 17:53:00,
2013-03-23 13:54:00,36.8,23.8,30.03,North,0,0.0,14.0,59,0.00,,---,0.00,VWS V14.00,2013-03-23 17:54:00,
2013-03-23 13:55:00,36.8,23.4,30.03,North,0,0.0,14.0,58,0.00,,---,0.00,VWS V14.00,2013-03-23 17:55:00,
2013-03-23 13:59:00,37.2,23.8,30.03,NW,313,2.0,14.0,58,0.00,,---,0.00,VWS V14.00,2013-03-23 17:59:00,
2013-03-23 14:00:00,37.3,23.9,30.02,NNW,347,6.0,17.0,58,0.00,,---,0.00,VWS V14.00,2013-03-23 18:00:00,
2013-03-23 14:04:00,37.2,23.4,30.02,NW,316,7.0,13.0,57,0.00,,---,0.00,VWS V14.00,2013-03-23 18:04:00,
2013-03-23 14:05:00,37.2,23.4,30.02,NW,316,7.0,13.0,57,0.00,,---,0.00,VWS V14.00,2013-03-23 18:05:00,
2013-03-23 14:09:00,36.9,23.1,30.02,NNW,344,10.0,13.0,57,0.00,,---,0.00,VWS V14.00,2013-03-23 18:09:00,
2013-03-23 14:10:00,36.6,22.4,30.02,NNW,329,9.0,13.0,56,0.00,,---,0.00,VWS V14.00,2013-03-23 18:10:00,
2013-03-23 14:14:00,36.2,22.5,30.03,NNE,20,4.0,13.0,57,0.00,,---,0.00,VWS V14.00,2013-03-23 18:14:00,
2013-03-23 14:15:00,36.2,22.5,30.03,NNW,337,9.0,13.0,57,0.00,,---,0.00,VWS V14.00,2013-03-23 18:15:00,
2013-03-23 14:19:00,36.3,23.0,30.03,NNE,17,0.0,17.0,58,0.00,,---,0.00,VWS V14.00,2013-03-23 18:19:00,
2013-03-23 14:20:00,36.3,23.0,30.03,NNE,17,0.0,17.0,58,0.00,,---,0.00,VWS V14.00,2013-03-23 18:20:00,
2013-03-23 14:24:00,36.2,23.3,30.03,West,280,9.0,17.0,59,0.00,,---,0.00,VWS V14.00,2013-03-23 18:24:00,
2013-03-23 14:25:00,36.2,24.1,30.03,WNW,301,7.0,17.0,61,0.00,,---,0.00,VWS V14.00,2013-03-23 18:25:00,
2013-03-23 14:29:00,36.3,24.1,30.02,NW,319,6.0,17.0,61,0.00,,---,0.00,VWS V14.00,2013-03-23 18:29:00,
2013-03-23 14:30:00,36.3,24.1,30.02,NW,319,6.0,17.0,61,0.00,,---,0.00,VWS V14.00,2013-03-23 18:30:00,
2013-03-23 14:34:00,36.3,23.4,30.02,NNE,20,9.0,17.0,59,0.00,,---,0.00,VWS V14.00,2013-03-23 18:34:00,
2013-03-23 14:35:00,36.3,23.4,30.02,NNE,20,8.0,17.0,59,0.00,,---,0.00,VWS V14.00,2013-03-23 18:35:00,
2013-03-23 14:39:00,35.9,22.6,30.02,North,0,4.0,17.0,58,0.00,,---,0.00,VWS V14.00,2013-03-23 18:39:00,
2013-03-23 14:40:00,35.9,22.6,30.02,NNE,31,4.0,17.0,58,0.00,,---,0.00,VWS V14.00,2013-03-23 18:40:00,
2013-03-23 14:45:00,35.9,22.6,30.01,NNE,30,1.0,17.0,58,0.00,,---,0.00,VWS V14.00,2013-03-23 18:45:00,
2013-03-23 14:46:00,36.0,23.1,30.01,NNE,27,2.0,17.0,59,0.00,,---,0.00,VWS V14.00,2013-03-23 18:46:00,
2013-03-23 14:50:00,36.0,23.1,30.01,NNW,339,8.0,17.0,59,0.00,,---,0.00,VWS V14.00,2013-03-23 18:50:00,
2013-03-23 14:51:00,36.0,22.7,30.01,NE,41,4.0,17.0,58,0.00,,---,0.00,VWS V14.00,2013-03-23 18:51:00,
2013-03-23 14:55:00,36.8,24.2,30.01,WNW,292,6.0,17.0,60,0.00,,---,0.00,VWS V14.00,2013-03-23 18:55:00,
2013-03-23 14:56:00,36.9,24.7,30.01,West,280,6.0,17.0,61,0.00,,---,0.00,VWS V14.00,2013-03-23 18:56:00,
2013-03-23 15:00:00,37.6,25.8,30.01,WNW,289,4.0,17.0,62,0.00,,---,0.00,VWS V14.00,2013-03-23 19:00:00,
2013-03-23 15:01:00,37.6,25.8,30.01,NNW,340,8.0,8.0,62,0.00,,---,0.00,VWS V14.00,2013-03-23 19:01:00,
2013-03-23 15:05:00,37.6,25.0,30.01,NNW,329,6.0,9.0,60,0.00,,---,0.00,VWS V14.00,2013-03-23 19:05:00,
2013-03-23 15:06:00,37.6,24.6,30.01,WNW,282,6.0,9.0,59,0.00,,---,0.00,VWS V14.00,2013-03-23 19:06:00,
2013-03-23 15:07:00,37.5,24.5,30.01,WNW,289,4.0,9.0,59,0.00,,---,0.00,VWS V14.00,2013-03-23 19:07:00,
2013-03-23 15:10:00,37.5,24.5,30.01,NW,322,0.0,9.0,59,0.00,,---,0.00,VWS V14.00,2013-03-23 19:10:00,
2013-03-23 15:11:00,37.5,24.5,30.01,WSW,258,4.0,9.0,59,0.00,,---,0.00,VWS V14.00,2013-03-23 19:11:00,
2013-03-23 15:12:00,37.5,24.1,30.01,West,275,4.0,9.0,58,0.00,,---,0.00,VWS V14.00,2013-03-23 19:12:00,
2013-03-23 15:15:00,37.6,24.2,30.01,South,175,0.0,9.0,58,0.00,,---,0.00,VWS V14.00,2013-03-23 19:15:00,
2013-03-23 15:17:00,37.6,24.2,30.01,WNW,302,0.0,9.0,58,0.00,,---,0.00,VWS V14.00,2013-03-23 19:17:00,
2013-03-23 15:20:00,37.8,23.5,30.01,NNW,340,2.0,10.0,56,0.00,,---,0.00,VWS V14.00,2013-03-23 19:20:00,
2013-03-23 15:22:00,37.8,23.5,30.01,North,0,8.0,10.0,56,0.00,,---,0.00,VWS V14.00,2013-03-23 19:22:00,
2013-03-23 15:25:00,37.5,22.8,30.01,North,7,4.0,10.0,55,0.00,,---,0.00,VWS V14.00,2013-03-23 19:25:00,
2013-03-23 15:27:00,37.3,22.6,30.01,NNW,329,8.0,10.0,55,0.00,,---,0.00,VWS V14.00,2013-03-23 19:27:00,
2013-03-23 15:28:00,37.3,23.1,30.01,NW,326,6.0,10.0,56,0.00,,---,0.00,VWS V14.00,2013-03-23 19:28:00,
2013-03-23 15:30:00,37.3,23.5,30.01,North,6,4.0,10.0,57,0.00,,---,0.00,VWS V14.00,2013-03-23 19:30:00,
2013-03-23 15:31:00,37.3,23.5,30.01,WNW,298,10.0,10.0,57,0.00,,---,0.00,VWS V14.00,2013-03-23 19:31:00,
2013-03-23 15:32:00,37.2,23.4,30.01,NW,305,7.0,11.0,57,0.00,,---,0.00,VWS V14.00,2013-03-23 19:32:00,
2013-03-23 15:33:00,37.2,23.4,30.01,North,356,6.0,11.0,57,0.00,,---,0.00,VWS V14.00,2013-03-23 19:33:00,
2013-03-23 15:35:00,37.2,23.8,30.01,NE,37,4.0,11.0,58,0.00,,---,0.00,VWS V14.00,2013-03-23 19:35:00,
2013-03-23 15:36:00,37.0,23.6,30.01,ENE,64,6.0,11.0,58,0.00,,---,0.00,VWS V14.00,2013-03-23 19:36:00,
2013-03-23 15:37:00,37.0,23.6,30.01,North,10,6.0,11.0,58,0.00,,---,0.00,VWS V14.00,2013-03-23 19:37:00,
2013-03-23 15:38:00,36.9,23.1,30.01,NNE,13,4.0,11.0,57,0.00,,---,0.00,VWS V14.00,2013-03-23 19:38:00,
2013-03-23 15:40:00,36.6,22.8,30.01,NNE,30,2.0,11.0,57,0.00,,---,0.00,VWS V14.00,2013-03-23 19:40:00,
2013-03-23 15:41:00,36.5,23.1,30.01,North,0,4.0,11.0,58,0.00,,---,0.00,VWS V14.00,2013-03-23 19:41:00,
2013-03-23 15:43:00,36.3,22.5,30.01,NNE,24,0.0,11.0,57,0.00,,---,0.00,VWS V14.00,2013-03-23 19:43:00,
2013-03-23 15:45:00,36.3,23.0,30.01,North,6,2.0,11.0,58,0.00,,---,0.00,VWS V14.00,2013-03-23 19:45:00,
2013-03-23 15:46:00,36.3,23.0,30.01,North,10,2.0,11.0,58,0.00,,---,0.00,VWS V14.00,2013-03-23 19:46:00,
2013-03-23 15:48:00,36.2,22.9,30.01,North,356,6.0,11.0,58,0.00,,---,0.00,VWS V14.00,2013-03-23 19:48:00,
2013-03-23 15:50:00,35.9,22.6,30.01,NNE,27,8.0,13.0,58,0.00,,---,0.00,VWS V14.00,2013-03-23 19:50:00,
2013-03-23 15:52:00,35.6,22.7,30.01,North,10,1.0,13.0,59,0.00,,---,0.00,VWS V14.00,2013-03-23 19:52:00,
2013-03-23 15:53:00,35.6,22.7,30.01,North,0,4.0,13.0,59,0.00,,---,0.00,VWS V14.00,2013-03-23 19:53:00,
2013-03-23 15:55:00,35.9,23.8,30.01,NNW,335,4.0,13.0,61,0.00,,---,0.00,VWS V14.00,2013-03-23 19:55:00,
2013-03-23 15:58:00,36.0,24.3,30.01,North,6,8.0,13.0,62,0.00,,---,0.00,VWS V14.00,2013-03-23 19:58:00,
2013-03-23 16:02:00,36.2,24.1,30.00,NW,312,6.0,13.0,61,0.00,,---,0.00,VWS V14.00,2013-03-23 20:02:00,
2013-03-23 16:03:00,36.2,24.1,30.00,NNW,347,0.0,13.0,61,0.00,,---,0.00,VWS V14.00,2013-03-23 20:03:00,
2013-03-23 16:07:00,36.2,24.1,30.00,NW,325,6.0,13.0,61,0.00,,---,0.00,VWS V14.00,2013-03-23 20:07:00,
2013-03-23 16:08:00,36.2,23.7,30.00,WNW,288,8.0,13.0,60,0.00,,---,0.00,VWS V14.00,2013-03-23 20:08:00,
2013-03-23 16:12:00,36.0,23.5,30.00,WNW,295,4.0,13.0,60,0.00,,---,0.00,VWS V14.00,2013-03-23 20:12:00,
2013-03-23 16:13:00,36.2,24.1,30.00,WNW,298,0.0,13.0,61,0.00,,---,0.00,VWS V14.00,2013-03-23 20:13:00,
2013-03-23 16:14:00,36.2,24.1,30.00,WNW,298,2.0,13.0,61,0.00,,---,0.00,VWS V14.00,2013-03-23 20:14:00,
2013-03-23 16:17:00,36.6,24.8,30.01,SW,223,6.0,13.0,62,0.00,,---,0.00,VWS V14.00,2013-03-23 20:17:00,
2013-03-23 16:18:00,36.6,24.4,30.01,West,281,7.0,13.0,61,0.00,,---,0.00,VWS V14.00,2013-03-23 20:18:00,
2013-03-23 16:19:00,36.8,24.6,30.01,WNW,282,4.0,13.0,61,0.00,,---,0.00,VWS V14.00,2013-03-23 20:19:00,
2013-03-23 16:22:00,36.6,24.4,30.01,West,272,2.0,13.0,61,0.00,,---,0.00,VWS V14.00,2013-03-23 20:22:00,
2013-03-23 16:23:00,36.6,24.0,30.01,WNW,291,0.0,13.0,60,0.00,,---,0.00,VWS V14.00,2013-03-23 20:23:00,
2013-03-23 16:24:00,36.6,24.0,30.01,WSW,247,4.0,13.0,60,0.00,,---,0.00,VWS V14.00,2013-03-23 20:24:00,
2013-03-23 16:27:00,36.8,24.6,30.01,WSW,253,2.0,13.0,61,0.00,,---,0.00,VWS V14.00,2013-03-23 20:27:00,
2013-03-23 16:28:00,36.9,24.7,30.01,WNW,302,7.0,13.0,61,0.00,,---,0.00,VWS V14.00,2013-03-23 20:28:00,
2013-03-23 16:29:00,36.9,24.7,30.01,SW,226,7.0,13.0,61,0.00,,---,0.00,VWS V14.00,2013-03-23 20:29:00,
2013-03-23 16:32:00,37.3,25.1,30.01,SW,223,1.0,13.0,61,0.00,,---,0.00,VWS V14.00,2013-03-23 20:32:00,
2013-03-23 16:33:00,37.2,24.6,30.01,SW,223,1.0,13.0,60,0.00,,---,0.00,VWS V14.00,2013-03-23 20:33:00,
2013-03-23 16:34:00,37.2,24.6,30.01,SW,223,1.0,13.0,60,0.00,,---,0.00,VWS V14.00,2013-03-23 20:34:00,
2013-03-23 16:38:00,37.0,24.0,30.01,NW,313,1.0,13.0,59,0.00,,---,0.00,VWS V14.00,2013-03-23 20:38:00,
2013-03-23 16:39:00,37.0,24.0,30.01,North,6,8.0,13.0,59,0.00,,---,0.00,VWS V14.00,2013-03-23 20:39:00,
2013-03-23 16:43:00,36.9,23.5,30.01,NE,34,4.0,13.0,58,0.00,,---,0.00,VWS V14.00,2013-03-23 20:43:00,
2013-03-23 16:44:00,36.9,23.5,30.01,NNE,31,6.0,13.0,58,0.00,,---,0.00,VWS V14.00,2013-03-23 20:44:00,
2013-03-23 16:48:00,36.3,23.0,30.01,NNE,27,2.0,13.0,58,0.00,,---,0.00,VWS V14.00,2013-03-23 20:48:00,
2013-03-23 16:49:00,36.3,23.0,30.01,North,3,2.0,13.0,58,0.00,,---,0.00,VWS V14.00,2013-03-23 20:49:00,
2013-03-23 16:50:00,36.2,22.9,30.01,NNE,20,2.0,13.0,58,0.00,,---,0.00,VWS V14.00,2013-03-23 20:50:00,
2013-03-23 16:53:00,36.2,22.9,30.01,North,0,7.0,13.0,58,0.00,,---,0.00,VWS V14.00,2013-03-23 20:53:00,
2013-03-23 16:54:00,36.2,22.9,30.01,North,6,8.0,13.0,58,0.00,,---,0.00,VWS V14.00,2013-03-23 20:54:00,
2013-03-23 16:55:00,36.0,22.7,30.01,North,3,7.0,13.0,58,0.00,,---,0.00,VWS V14.00,2013-03-23 20:55:00,
2013-03-23 16:58:00,35.8,22.5,30.01,NNE,17,2.0,13.0,58,0.00,,---,0.00,VWS V14.00,2013-03-23 20:58:00,
2013-03-23 16:59:00,35.8,22.5,30.01,NNE,20,4.0,13.0,58,0.00,,---,0.00,VWS V14.00,2013-03-23 20:59:00,
2013-03-23 17:00:00,35.6,22.3,30.01,North,6,2.0,13.0,58,0.00,,---,0.00,VWS V14.00,2013-03-23 21:00:00,
2013-03-23 17:04:00,35.5,22.2,30.01,NW,316,6.0,7.0,58,0.00,,---,0.00,VWS V14.00,2013-03-23 21:04:00,
2013-03-23 17:05:00,35.5,22.6,30.01,WNW,288,6.0,8.0,59,0.00,,---,0.00,VWS V14.00,2013-03-23 21:05:00,
2013-03-23 17:09:00,35.6,23.5,30.01,West,281,2.0,8.0,61,0.00,,---,0.00,VWS V14.00,2013-03-23 21:09:00,
2013-03-23 17:10:00,35.8,23.7,30.01,West,278,4.0,8.0,61,0.00,,---,0.00,VWS V14.00,2013-03-23 21:10:00,
2013-03-23 17:14:00,35.9,23.8,30.01,SW,215,6.0,8.0,61,0.00,,---,0.00,VWS V14.00,2013-03-23 21:14:00,
2013-03-23 17:15:00,35.9,23.8,30.02,SW,216,2.0,8.0,61,0.00,,---,0.00,VWS V14.00,2013-03-23 21:15:00,
2013-03-23 17:19:00,36.3,24.5,30.02,SW,236,4.0,8.0,62,0.00,,---,0.00,VWS V14.00,2013-03-23 21:19:00,
2013-03-23 17:20:00,36.5,24.3,30.02,West,272,2.0,8.0,61,0.00,,---,0.00,VWS V14.00,2013-03-23 21:20:00,
2013-03-23 17:24:00,36.9,24.7,30.02,WNW,291,7.0,10.0,61,0.00,,---,0.00,VWS V14.00,2013-03-23 21:24:00,
2013-03-23 17:25:00,37.0,24.4,30.02,NNW,342,4.0,10.0,60,0.00,,---,0.00,VWS V14.00,2013-03-23 21:25:00,
2013-03-23 17:29:00,37.6,25.0,30.02,North,0,0.0,10.0,60,0.00,,---,0.00,VWS V14.00,2013-03-23 21:29:00,
2013-03-23 17:30:00,37.8,25.2,30.01,North,0,4.0,10.0,60,0.00,,---,0.00,VWS V14.00,2013-03-23 21:30:00,
2013-03-23 17:34:00,38.0,25.0,30.01,NW,325,7.0,10.0,59,0.00,,---,0.00,VWS V14.00,2013-03-23 21:34:00,
2013-03-23 17:37:00,38.3,24.8,30.01,NNW,336,2.0,10.0,58,0.00,,---,0.00,VWS V14.00,2013-03-23 21:37:00,
2013-03-23 17:39:00,38.5,24.6,30.01,WNW,294,2.0,10.0,57,0.00,,---,0.00,VWS V14.00,2013-03-23 21:39:00,
2013-03-23 17:40:00,38.5,24.6,30.01,WNW,294,0.0,10.0,57,0.00,,---,0.00,VWS V14.00,2013-03-23 21:40:00,
2013-03-23 17:42:00,38.6,24.3,30.01,WNW,299,1.0,10.0,56,0.00,,---,0.00,VWS V14.00,2013-03-23 21:42:00,
2013-03-23 17:44:00,38.8,24.0,30.00,NW,313,1.0,10.0,55,0.00,,---,0.00,VWS V14.00,2013-03-23 21:44:00,
2013-03-23 17:45:00,38.8,24.0,30.00,North,0,2.0,10.0,55,0.00,,---,0.00,VWS V14.00,2013-03-23 21:45:00,
2013-03-23 17:47:00,38.9,24.1,30.00,NW,322,4.0,10.0,55,0.00,,---,0.00,VWS V14.00,2013-03-23 21:47:00,
2013-03-23 17:49:00,38.9,24.1,30.00,North,0,2.0,10.0,55,0.00,,---,0.00,VWS V14.00,2013-03-23 21:49:00,
2013-03-23 17:50:00,38.9,24.1,30.00,NE,48,6.0,10.0,55,0.00,,---,0.00,VWS V14.00,2013-03-23 21:50:00,
2013-03-23 17:52:00,38.8,24.0,30.00,NW,312,0.0,10.0,55,0.00,,---,0.00,VWS V14.00,2013-03-23 21:52:00,
2013-03-23 17:54:00,38.8,24.0,30.00,North,353,2.0,10.0,55,0.00,,---,0.00,VWS V14.00,2013-03-23 21:54:00,
2013-03-23 17:55:00,38.8,24.0,30.00,North,0,2.0,10.0,55,0.00,,---,0.00,VWS V14.00,2013-03-23 21:55:00,
2013-03-23 17:57:00,38.8,23.6,30.00,North,353,1.0,10.0,54,0.00,,---,0.00,VWS V14.00,2013-03-23 21:57:00,
2013-03-23 18:00:00,38.6,23.8,30.00,West,281,6.0,10.0,55,0.00,,---,0.00,VWS V14.00,2013-03-23 22:00:00,
2013-03-23 18:02:00,38.8,24.0,30.00,NNW,329,7.0,9.0,55,0.00,,---,0.00,VWS V14.00,2013-03-23 22:02:00,
2013-03-23 18:05:00,38.9,24.1,30.00,NNW,344,7.0,9.0,55,0.00,,---,0.00,VWS V14.00,2013-03-23 22:05:00,
2013-03-23 18:07:00,38.9,24.1,30.00,North,0,1.0,9.0,55,0.00,,---,0.00,VWS V14.00,2013-03-23 22:07:00,
2013-03-23 18:10:00,38.8,24.0,30.00,WNW,294,9.0,9.0,55,0.00,,---,0.00,VWS V14.00,2013-03-23 22:10:00,
2013-03-23 18:13:00,38.6,23.8,30.00,WNW,294,9.0,9.0,55,0.00,,---,0.00,VWS V14.00,2013-03-23 22:13:00,
2013-03-23 18:15:00,38.5,23.8,30.00,WNW,285,0.0,10.0,55,0.00,,---,0.00,VWS V14.00,2013-03-23 22:15:00,
2013-03-23 18:18:00,38.3,23.6,30.00,WSW,240,4.0,10.0,55,0.00,,---,0.00,VWS V14.00,2013-03-23 22:18:00,
2013-03-23 18:20:00,38.2,23.5,30.00,WSW,250,4.0,10.0,55,0.00,,---,0.00,VWS V14.00,2013-03-23 22:20:00,
2013-03-23 18:23:00,38.2,23.9,30.00,West,278,9.0,10.0,56,0.00,,---,0.00,VWS V14.00,2013-03-23 22:23:00,
2013-03-23 18:25:00,38.0,23.7,30.00,West,281,7.0,10.0,56,0.00,,---,0.00,VWS V14.00,2013-03-23 22:25:00,
2013-03-23 18:26:00,38.0,24.1,30.00,West,278,8.0,10.0,57,0.00,,---,0.00,VWS V14.00,2013-03-23 22:26:00,
2013-03-23 18:28:00,38.0,24.1,30.00,WNW,294,4.0,10.0,57,0.00,,---,0.00,VWS V14.00,2013-03-23 22:28:00,
2013-03-23 18:30:00,38.0,24.1,30.00,NW,309,4.0,10.0,57,0.00,,---,0.00,VWS V14.00,2013-03-23 22:30:00,
2013-03-23 18:31:00,37.9,24.0,30.00,NW,308,7.0,10.0,57,0.00,,---,0.00,VWS V14.00,2013-03-23 22:31:00,
2013-03-23 18:33:00,37.9,24.0,30.00,North,354,2.0,10.0,57,0.00,,---,0.00,VWS V14.00,2013-03-23 22:33:00,
2013-03-23 18:35:00,37.9,23.6,30.00,North,10,4.0,10.0,56,0.00,,---,0.00,VWS V14.00,2013-03-23 22:35:00,
2013-03-23 18:36:00,37.9,23.6,30.00,North,354,4.0,10.0,56,0.00,,---,0.00,VWS V14.00,2013-03-23 22:36:00,
2013-03-23 18:37:00,37.9,23.6,30.00,NW,306,7.0,10.0,56,0.00,,---,0.00,VWS V14.00,2013-03-23 22:37:00,
2013-03-23 18:38:00,37.9,23.2,30.00,NNW,346,2.0,10.0,55,0.00,,---,0.00,VWS V14.00,2013-03-23 22:38:00,
2013-03-23 18:40:00,37.9,23.2,30.00,NW,315,0.0,10.0,55,0.00,,---,0.00,VWS V14.00,2013-03-23 22:40:00,
2013-03-23 18:42:00,37.8,23.1,30.00,North,0,4.0,10.0,55,0.00,,---,0.00,VWS V14.00,2013-03-23 22:42:00,
2013-03-23 18:43:00,37.8,23.1,30.00,NNW,329,7.0,10.0,55,0.00,,---,0.00,VWS V14.00,2013-03-23 22:43:00,
2013-03-23 18:45:00,37.8,23.5,30.00,North,0,7.0,10.0,56,0.00,,---,0.00,VWS V14.00,2013-03-23 22:45:00,
2013-03-23 18:47:00,37.6,23.3,30.00,North,356,6.0,10.0,56,0.00,,---,0.00,VWS V14.00,2013-03-23 22:47:00,
2013-03-23 18:48:00,37.6,23.3,30.00,NW,326,8.0,10.0,56,0.00,,---,0.00,VWS V14.00,2013-03-23 22:48:00,
2013-03-23 18:50:00,37.6,23.8,30.00,North,0,4.0,10.0,57,0.00,,---,0.00,VWS V14.00,2013-03-23 22:50:00,
2013-03-23 18:52:00,37.6,23.8,30.00,NNW,329,6.0,10.0,57,0.00,,---,0.00,VWS V14.00,2013-03-23 22:52:00,
2013-03-23 18:53:00,37.5,23.7,30.00,NNW,335,6.0,10.0,57,0.00,,---,0.00,VWS V14.00,2013-03-23 22:53:00,
2013-03-23 18:55:00,37.5,23.2,30.00,North,0,4.0,11.0,56,0.00,,---,0.00,VWS V14.00,2013-03-23 22:55:00,
2013-03-23 18:57:00,37.5,23.2,30.00,NNW,347,6.0,11.0,56,0.00,,---,0.00,VWS V14.00,2013-03-23 22:57:00,
2013-03-23 18:58:00,37.5,23.7,30.00,NNW,329,6.0,11.0,57,0.00,,---,0.00,VWS V14.00,2013-03-23 22:58:00,
2013-03-23 19:00:00,37.3,23.5,30.00,WNW,295,7.0,7.0,57,0.00,,---,0.00,VWS V14.00,2013-03-23 23:00:00,
2013-03-23 19:02:00,37.3,23.5,30.00,NW,305,10.0,11.0,57,0.00,,---,0.00,VWS V14.00,2013-03-23 23:02:00,
2013-03-23 19:03:00,37.2,23.4,30.00,WNW,298,4.0,11.0,57,0.00,,---,0.00,VWS V14.00,2013-03-23 23:03:00,
2013-03-23 19:05:00,37.2,23.0,30.00,NW,306,2.0,11.0,56,0.00,,---,0.00,VWS V14.00,2013-03-23 23:05:00,
2013-03-23 19:07:00,37.0,23.2,30.00,North,357,4.0,11.0,57,0.00,,---,0.00,VWS V14.00,2013-03-23 23:07:00,
2013-03-23 19:09:00,37.0,23.2,30.00,NNW,342,2.0,11.0,57,0.00,,---,0.00,VWS V14.00,2013-03-23 23:09:00,
2013-03-23 19:10:00,37.0,23.2,30.00,NNW,339,2.0,11.0,57,0.00,,---,0.00,VWS V14.00,2013-03-23 23:10:00,
2013-03-23 19:12:00,36.9,23.1,30.00,WNW,289,7.0,11.0,57,0.00,,---,0.00,VWS V14.00,2013-03-23 23:12:00,
2013-03-23 19:14:00,36.8,23.0,30.00,NNW,332,6.0,11.0,57,0.00,,---,0.00,VWS V14.00,2013-03-23 23:14:00,
2013-03-23 19:15:00,36.8,23.0,30.00,NW,323,7.0,13.0,57,0.00,,---,0.00,VWS V14.00,2013-03-23 23:15:00,
2013-03-23 19:17:00,36.6,23.2,30.00,NNW,332,1.0,13.0,58,0.00,,---,0.00,VWS V14.00,2013-03-23 23:17:00,
2013-03-23 19:18:00,36.6,23.2,30.00,NNW,332,1.0,13.0,58,0.00,,---,0.00,VWS V14.00,2013-03-23 23:18:00,
2013-03-23 19:19:00,36.5,23.1,30.00,NNW,337,4.0,13.0,58,0.00,,---,0.00,VWS V14.00,2013-03-23 23:19:00,
2013-03-23 19:20:00,36.5,23.1,30.00,NNW,335,4.0,13.0,58,0.00,,---,0.00,VWS V14.00,2013-03-23 23:20:00,
2013-03-23 19:22:00,36.3,23.0,30.00,NNW,330,7.0,13.0,58,0.00,,---,0.00,VWS V14.00,2013-03-23 23:22:00,
2013-03-23 19:23:00,36.3,23.0,30.00,NNW,330,6.0,13.0,58,0.00,,---,0.00,VWS V14.00,2013-03-23 23:23:00,
2013-03-23 19:24:00,36.3,23.0,30.00,NNW,329,1.0,13.0,58,0.00,,---,0.00,VWS V14.00,2013-03-23 23:24:00,
2013-03-23 19:25:00,36.2,22.9,30.00,North,349,4.0,13.0,58,0.00,,---,0.00,VWS V14.00,2013-03-23 23:25:00,
2013-03-23 19:27:00,36.0,22.7,30.00,North,356,2.0,13.0,58,0.00,,---,0.00,VWS V14.00,2013-03-23 23:27:00,
2013-03-23 19:28:00,36.0,22.7,30.00,NNW,332,2.0,13.0,58,0.00,,---,0.00,VWS V14.00,2013-03-23 23:28:00,
2013-03-23 19:29:00,35.9,23.0,30.00,NNW,337,6.0,13.0,59,0.00,,---,0.00,VWS V14.00,2013-03-23 23:29:00,
2013-03-23 19:31:00,35.9,23.0,30.00,NW,322,4.0,13.0,59,0.00,,---,0.00,VWS V14.00,2013-03-23 23:31:00,
2013-03-23 19:32:00,35.8,22.9,30.00,NW,320,6.0,13.0,59,0.00,,---,0.00,VWS V14.00,2013-03-23 23:32:00,
2013-03-23 19:33:00,35.8,22.9,30.00,NW,318,8.0,13.0,59,0.00,,---,0.00,VWS V14.00,2013-03-23 23:33:00,
2013-03-23 19:34:00,35.6,22.7,30.00,North,0,2.0,13.0,59,0.00,,---,0.00,VWS V14.00,2013-03-23 23:34:00,
2013-03-23 19:36:00,35.5,23.0,30.00,NNW,342,4.0,13.0,60,0.00,,---,0.00,VWS V14.00,2013-03-23 23:36:00,
2013-03-23 19:37:00,35.3,22.8,30.00,WNW,299,8.0,13.0,60,0.00,,---,0.00,VWS V14.00,2013-03-23 23:37:00,
2013-03-23 19:38:00,35.3,22.8,30.00,NW,316,7.0,13.0,60,0.00,,---,0.00,VWS V14.00,2013-03-23 23:38:00,
2013-03-23 19:39:00,35.3,22.8,30.00,NNW,332,6.0,13.0,60,0.00,,---,0.00,VWS V14.00,2013-03-23 23:39:00,
2013-03-23 19:41:00,35.2,23.1,30.00,NW,308,6.0,13.0,61,0.00,,---,0.00,VWS V14.00,2013-03-23 23:41:00,
2013-03-23 19:42:00,35.0,22.9,30.00,NNW,346,6.0,13.0,61,0.00,,---,0.00,VWS V14.00,2013-03-23 23:42:00,
2013-03-23 19:43:00,35.0,22.9,30.00,NW,319,8.0,13.0,61,0.00,,---,0.00,VWS V14.00,2013-03-23 23:43:00,
2013-03-23 19:44:00,34.9,22.8,30.00,NW,316,0.0,13.0,61,0.00,,---,0.00,VWS V14.00,2013-03-23 23:44:00,
2013-03-23 19:46:00,34.7,22.6,30.00,NW,318,4.0,13.0,61,0.00,,---,0.00,VWS V14.00,2013-03-23 23:46:00,
2013-03-23 19:48:00,34.6,22.5,30.00,NW,320,1.0,13.0,61,0.00,,---,0.00,VWS V14.00,2013-03-23 23:48:00,
2013-03-23 19:49:00,34.4,22.7,30.00,NNW,342,6.0,13.0,62,0.00,,---,0.00,VWS V14.00,2013-03-23 23:49:00,
2013-03-23 19:51:00,34.3,22.6,30.00,NNW,330,7.0,13.0,62,0.00,,---,0.00,VWS V14.00,2013-03-23 23:51:00,
2013-03-23 19:53:00,34.1,22.5,30.00,NNW,344,4.0,13.0,62,0.00,,---,0.00,VWS V14.00,2013-03-23 23:53:00,
2013-03-23 19:54:00,34.1,22.5,30.00,North,0,2.0,13.0,62,0.00,,---,0.00,VWS V14.00,2013-03-23 23:54:00,
2013-03-23 19:57:00,34.0,22.4,30.00,NNW,340,1.0,13.0,62,0.00,,---,0.00,VWS V14.00,2013-03-23 23:57:00,
2013-03-23 19:58:00,33.8,22.5,30.00,NNW,340,6.0,13.0,63,0.00,,---,0.00,VWS V14.00,2013-03-23 23:58:00,
2013-03-23 20:00:00,33.7,22.5,29.99,NNW,342,4.0,13.0,63,0.00,,---,0.00,VWS V14.00,2013-03-24 00:00:00,
2013-03-23 20:02:00,33.5,22.3,29.99,NW,319,2.0,8.0,63,0.00,,---,0.00,VWS V14.00,2013-03-24 00:02:00,
2013-03-23 20:03:00,33.5,22.3,29.99,NNW,336,0.0,8.0,63,0.00,,---,0.00,VWS V14.00,2013-03-24 00:03:00,
2013-03-23 20:04:00,33.5,22.3,29.99,NW,318,7.0,8.0,63,0.00,,---,0.00,VWS V14.00,2013-03-24 00:04:00,
2013-03-23 20:05:00,33.4,22.5,29.99,NNW,343,7.0,8.0,64,0.00,,---,0.00,VWS V14.00,2013-03-24 00:05:00,
2013-03-23 20:07:00,33.2,22.4,29.99,North,0,4.0,8.0,64,0.00,,---,0.00,VWS V14.00,2013-03-24 00:07:00,
2013-03-23 20:08:00,33.2,22.4,29.99,North,0,2.0,8.0,64,0.00,,---,0.00,VWS V14.00,2013-03-24 00:08:00,
2013-03-23 20:09:00,33.1,22.3,29.99,NNW,347,2.0,8.0,64,0.00,,---,0.00,VWS V14.00,2013-03-24 00:09:00,
2013-03-23 20:10:00,33.1,22.3,29.99,North,0,4.0,8.0,64,0.00,,---,0.00,VWS V14.00,2013-03-24 00:10:00,
2013-03-23 20:12:00,32.9,22.4,29.99,NW,319,8.0,8.0,65,0.00,,---,0.00,VWS V14.00,2013-03-24 00:12:00,
2013-03-23 20:13:00,32.9,22.4,29.99,NW,319,4.0,8.0,65,0.00,,---,0.00,VWS V14.00,2013-03-24 00:13:00,
2013-03-23 20:14:00,32.9,22.4,29.99,NW,320,2.0,8.0,65,0.00,,---,0.00,VWS V14.00,2013-03-24 00:14:00,
2013-03-23 20:15:00,32.8,22.3,30.00,NNW,329,7.0,8.0,65,0.00,,---,0.00,VWS V14.00,2013-03-24 00:15:00,
2013-03-23 20:17:00,32.7,22.2,30.00,NNW,336,4.0,8.0,65,0.00,,---,0.00,VWS V14.00,2013-03-24 00:17:00,
2013-03-23 20:18:00,32.7,22.2,30.00,NNW,336,6.0,8.0,65,0.00,,---,0.00,VWS V14.00,2013-03-24 00:18:00,
2013-03-23 20:19:00,32.7,22.2,30.00,NW,323,4.0,8.0,65,0.00,,---,0.00,VWS V14.00,2013-03-24 00:19:00,
2013-03-23 20:20:00,32.5,22.1,30.00,NNW,329,2.0,8.0,65,0.00,,---,0.00,VWS V14.00,2013-03-24 00:20:00,
2013-03-23 20:22:00,32.4,22.3,30.00,NNW,347,6.0,8.0,66,0.00,,---,0.00,VWS V14.00,2013-03-24 00:22:00,
2013-03-23 20:24:00,32.4,22.3,30.00,NNW,335,4.0,8.0,66,0.00,,---,0.00,VWS V14.00,2013-03-24 00:24:00,
2013-03-23 20:25:00,32.2,22.1,30.00,NW,322,2.0,8.0,66,0.00,,---,0.00,VWS V14.00,2013-03-24 00:25:00,
2013-03-23 20:27:00,32.2,22.1,30.00,NW,323,0.0,8.0,66,0.00,,---,0.00,VWS V14.00,2013-03-24 00:27:00,
2013-03-23 20:29:00,32.1,22.0,30.00,NW,325,0.0,8.0,66,0.00,,---,0.00,VWS V14.00,2013-03-24 00:29:00,
2013-03-23 20:30:00,32.1,22.4,30.00,NW,323,4.0,8.0,67,0.00,,---,0.00,VWS V14.00,2013-03-24 00:30:00,
2013-03-23 20:33:00,31.9,22.2,30.00,NW,323,4.0,8.0,67,0.00,,---,0.00,VWS V14.00,2013-03-24 00:33:00,
2013-03-23 20:34:00,31.9,22.2,30.00,NW,323,4.0,8.0,67,0.00,,---,0.00,VWS V14.00,2013-03-24 00:34:00,
2013-03-23 20:35:00,31.8,22.1,30.00,NW,325,0.0,8.0,67,0.00,,---,0.00,VWS V14.00,2013-03-24 00:35:00,
2013-03-23 20:38:00,31.6,21.9,30.00,NW,319,6.0,8.0,67,0.00,,---,0.00,VWS V14.00,2013-03-24 00:38:00,
2013-03-23 20:39:00,31.6,21.9,30.00,NW,319,4.0,8.0,67,0.00,,---,0.00,VWS V14.00,2013-03-24 00:39:00,
2013-03-23 20:40:00,31.6,21.9,30.00,NW,313,6.0,8.0,67,0.00,,---,0.00,VWS V14.00,2013-03-24 00:40:00,
2013-03-23 20:43:00,31.5,22.2,30.00,NW,315,4.0,8.0,68,0.00,,---,0.00,VWS V14.00,2013-03-24 00:43:00,
2013-03-23 20:44:00,31.5,22.2,30.00,NW,315,2.0,8.0,68,0.00,,---,0.00,VWS V14.00,2013-03-24 00:44:00,
2013-03-23 20:45:00,31.3,22.0,30.01,NW,312,4.0,8.0,68,0.00,,---,0.00,VWS V14.00,2013-03-24 00:45:00,
2013-03-23 20:48:00,31.2,21.9,30.01,WNW,299,6.0,8.0,68,0.00,,---,0.00,VWS V14.00,2013-03-24 00:48:00,
2013-03-23 20:49:00,31.2,21.9,30.01,NW,313,2.0,8.0,68,0.00,,---,0.00,VWS V14.00,2013-03-24 00:49:00,
2013-03-23 20:50:00,31.2,21.9,30.01,NW,312,6.0,8.0,68,0.00,,---,0.00,VWS V14.00,2013-03-24 00:50:00,
2013-03-23 20:51:00,31.2,22.2,30.01,WNW,302,2.0,8.0,69,0.00,,---,0.00,VWS V14.00,2013-03-24 00:51:00,
2013-03-23 20:53:00,31.0,22.0,30.01,NW,320,6.0,8.0,69,0.00,,---,0.00,VWS V14.00,2013-03-24 00:53:00,
2013-03-23 20:54:00,31.0,22.0,30.01,NW,323,1.0,8.0,69,0.00,,---,0.00,VWS V14.00,2013-03-24 00:54:00,
2013-03-23 20:55:00,30.9,21.9,30.01,NNW,329,2.0,8.0,69,0.00,,---,0.00,VWS V14.00,2013-03-24 00:55:00,
2013-03-23 20:56:00,30.9,21.9,30.01,NNW,329,2.0,8.0,69,0.00,,---,0.00,VWS V14.00,2013-03-24 00:56:00,
2013-03-23 20:58:00,30.9,21.9,30.01,NW,322,2.0,8.0,69,0.00,,---,0.00,VWS V14.00,2013-03-24 00:58:00,
2013-03-23 20:59:00,30.7,21.8,30.01,NW,322,4.0,8.0,69,0.00,,---,0.00,VWS V14.00,2013-03-24 00:59:00,
2013-03-23 21:00:00,30.7,21.8,30.02,NW,320,6.0,8.0,69,0.00,,---,0.00,VWS V14.00,2013-03-24 01:00:00,
2013-03-23 21:01:00,30.7,21.8,30.02,NNW,333,6.0,6.0,69,0.00,,---,0.00,VWS V14.00,2013-03-24 01:01:00,
2013-03-23 21:03:00,30.7,21.8,30.02,NW,322,2.0,8.0,69,0.00,,---,0.00,VWS V14.00,2013-03-24 01:03:00,
2013-03-23 21:04:00,30.6,21.6,30.02,NW,322,2.0,8.0,69,0.00,,---,0.00,VWS V14.00,2013-03-24 01:04:00,
2013-03-23 21:05:00,30.6,22.0,30.02,NW,322,2.0,8.0,70,0.00,,---,0.00,VWS V14.00,2013-03-24 01:05:00,
2013-03-23 21:06:00,30.6,22.0,30.02,NW,323,1.0,8.0,70,0.00,,---,0.00,VWS V14.00,2013-03-24 01:06:00,
2013-03-23 21:09:00,30.6,22.0,30.02,NW,326,2.0,8.0,70,0.00,,---,0.00,VWS V14.00,2013-03-24 01:09:00,
2013-03-23 21:10:00,30.4,21.8,30.02,NW,326,0.0,8.0,70,0.00,,---,0.00,VWS V14.00,2013-03-24 01:10:00,
2013-03-23 21:12:00,30.4,21.8,30.02,NW,326,2.0,8.0,70,0.00,,---,0.00,VWS V14.00,2013-03-24 01:12:00,
2013-03-23 21:14:00,30.4,21.8,30.02,NNW,329,4.0,8.0,70,0.00,,---,0.00,VWS V14.00,2013-03-24 01:14:00,
2013-03-23 21:15:00,30.3,21.7,30.01,NNW,329,0.0,8.0,70,0.00,,---,0.00,VWS V14.00,2013-03-24 01:15:00,
2013-03-23 21:17:00,30.3,21.7,30.01,NNW,329,0.0,8.0,70,0.00,,---,0.00,VWS V14.00,2013-03-24 01:17:00,
2013-03-23 21:19:00,30.3,21.7,30.01,NW,326,6.0,8.0,70,0.00,,---,0.00,VWS V14.00,2013-03-24 01:19:00,
2013-03-23 21:21:00,30.1,21.5,30.01,NNW,329,6.0,8.0,70,0.00,,---,0.00,VWS V14.00,2013-03-24 01:21:00,
2013-03-23 21:22:00,30.1,21.5,30.01,NNW,329,0.0,8.0,70,0.00,,---,0.00,VWS V14.00,2013-03-24 01:22:00,
2013-03-23 21:24:00,30.1,21.9,30.01,NNW,329,0.0,8.0,71,0.00,,---,0.00,VWS V14.00,2013-03-24 01:24:00,
2013-03-23 21:26:00,30.1,21.9,30.01,NNW,329,1.0,8.0,71,0.00,,---,0.00,VWS V14.00,2013-03-24 01:26:00,
2013-03-23 21:27:00,30.0,21.8,30.01,NNW,329,0.0,8.0,71,0.00,,---,0.00,VWS V14.00,2013-03-24 01:27:00,
2013-03-23 21:29:00,30.0,21.8,30.01,NNW,330,1.0,8.0,71,0.00,,---,0.00,VWS V14.00,2013-03-24 01:29:00,
2013-03-23 21:31:00,30.0,21.8,30.01,NNW,330,0.0,8.0,71,0.00,,---,0.00,VWS V14.00,2013-03-24 01:31:00,
2013-03-23 21:32:00,30.0,21.8,30.01,North,357,4.0,8.0,71,0.00,,---,0.00,VWS V14.00,2013-03-24 01:32:00,
2013-03-23 21:34:00,29.8,21.6,30.01,North,0,2.0,8.0,71,0.00,,---,0.00,VWS V14.00,2013-03-24 01:34:00,
2013-03-23 21:35:00,29.8,21.6,30.01,North,357,4.0,8.0,71,0.00,,---,0.00,VWS V14.00,2013-03-24 01:35:00,
2013-03-23 21:36:00,29.8,21.6,30.01,North,0,2.0,8.0,71,0.00,,---,0.00,VWS V14.00,2013-03-24 01:36:00,
2013-03-23 21:37:00,29.8,21.9,30.01,North,0,0.0,8.0,72,0.00,,---,0.00,VWS V14.00,2013-03-24 01:37:00,
2013-03-23 21:40:00,29.8,21.9,30.01,North,0,0.0,8.0,72,0.00,,---,0.00,VWS V14.00,2013-03-24 01:40:00,
2013-03-23 21:42:00,29.8,21.9,30.01,North,0,0.0,8.0,72,0.00,,---,0.00,VWS V14.00,2013-03-24 01:42:00,
2013-03-23 21:43:00,29.7,21.8,30.01,North,0,1.0,8.0,72,0.00,,---,0.00,VWS V14.00,2013-03-24 01:43:00,
2013-03-23 21:45:00,29.7,21.8,30.01,North,0,4.0,8.0,72,0.00,,---,0.00,VWS V14.00,2013-03-24 01:45:00,
2013-03-23 21:47:00,29.7,21.8,30.01,North,3,0.0,8.0,72,0.00,,---,0.00,VWS V14.00,2013-03-24 01:47:00,
2013-03-23 21:48:00,29.7,21.8,30.01,North,6,0.0,8.0,72,0.00,,---,0.00,VWS V14.00,2013-03-24 01:48:00,
2013-03-23 21:50:00,29.7,21.8,30.01,North,6,0.0,8.0,72,0.00,,---,0.00,VWS V14.00,2013-03-24 01:50:00,
2013-03-23 21:52:00,29.7,21.8,30.01,North,6,4.0,8.0,72,0.00,,---,0.00,VWS V14.00,2013-03-24 01:52:00,
2013-03-23 21:53:00,29.7,21.8,30.01,North,6,2.0,8.0,72,0.00,,---,0.00,VWS V14.00,2013-03-24 01:53:00,
2013-03-23 21:55:00,29.7,21.8,30.01,North,6,0.0,8.0,72,0.00,,---,0.00,VWS V14.00,2013-03-24 01:55:00,
2013-03-23 21:57:00,29.7,21.8,30.01,North,3,0.0,8.0,72,0.00,,---,0.00,VWS V14.00,2013-03-24 01:57:00,
2013-03-23 21:58:00,29.7,21.8,30.01,North,3,0.0,8.0,72,0.00,,---,0.00,VWS V14.00,2013-03-24 01:58:00,
2013-03-23 22:00:00,29.7,21.8,30.02,North,3,0.0,8.0,72,0.00,,---,0.00,VWS V14.00,2013-03-24 02:00:00,
2013-03-23 22:02:00,29.7,21.8,30.02,North,3,0.0,2.0,72,0.00,,---,0.00,VWS V14.00,2013-03-24 02:02:00,
2013-03-23 22:03:00,29.7,21.8,30.02,North,3,0.0,2.0,72,0.00,,---,0.00,VWS V14.00,2013-03-24 02:03:00,
2013-03-23 22:05:00,29.5,21.6,30.02,North,3,0.0,2.0,72,0.00,,---,0.00,VWS V14.00,2013-03-24 02:05:00,
2013-03-23 22:08:00,29.5,21.6,30.02,North,3,4.0,4.0,72,0.00,,---,0.00,VWS V14.00,2013-03-24 02:08:00,
2013-03-23 22:10:00,29.5,21.6,30.02,North,3,0.0,4.0,72,0.00,,---,0.00,VWS V14.00,2013-03-24 02:10:00,
2013-03-23 22:13:00,29.5,21.6,30.02,North,3,0.0,4.0,72,0.00,,---,0.00,VWS V14.00,2013-03-24 02:13:00,
2013-03-23 22:14:00,29.5,21.6,30.02,North,3,0.0,4.0,72,0.00,,---,0.00,VWS V14.00,2013-03-24 02:14:00,
2013-03-23 22:15:00,29.4,21.5,30.01,North,3,0.0,4.0,72,0.00,,---,0.00,VWS V14.00,2013-03-24 02:15:00,
2013-03-23 22:16:00,29.4,21.5,30.01,North,3,0.0,4.0,72,0.00,,---,0.00,VWS V14.00,2013-03-24 02:16:00,
2013-03-23 22:18:00,29.4,21.5,30.01,North,3,0.0,4.0,72,0.00,,---,0.00,VWS V14.00,2013-03-24 02:18:00,
2013-03-23 22:19:00,29.4,21.5,30.01,North,3,0.0,4.0,72,0.00,,---,0.00,VWS V14.00,2013-03-24 02:19:00,
2013-03-23 22:20:00,29.4,21.5,30.01,North,3,0.0,4.0,72,0.00,,---,0.00,VWS V14.00,2013-03-24 02:20:00,
2013-03-23 22:21:00,29.4,21.5,30.01,North,3,0.0,4.0,72,0.00,,---,0.00,VWS V14.00,2013-03-24 02:21:00,
2013-03-23 22:24:00,29.4,21.5,30.01,North,3,0.0,4.0,72,0.00,,---,0.00,VWS V14.00,2013-03-24 02:24:00,
2013-03-23 22:25:00,29.3,21.4,30.01,North,3,0.0,4.0,72,0.00,,---,0.00,VWS V14.00,2013-03-24 02:25:00,
2013-03-23 22:27:00,29.3,21.4,30.01,North,3,0.0,4.0,72,0.00,,---,0.00,VWS V14.00,2013-03-24 02:27:00,
2013-03-23 22:29:00,29.3,21.4,30.01,North,3,0.0,4.0,72,0.00,,---,0.00,VWS V14.00,2013-03-24 02:29:00,
2013-03-23 22:30:00,29.3,21.4,30.01,North,3,0.0,4.0,72,0.00,,---,0.00,VWS V14.00,2013-03-24 02:30:00,
2013-03-23 22:32:00,29.3,21.4,30.01,North,3,0.0,4.0,72,0.00,,---,0.00,VWS V14.00,2013-03-24 02:32:00,
2013-03-23 22:34:00,29.3,21.4,30.01,North,3,0.0,4.0,72,0.00,,---,0.00,VWS V14.00,2013-03-24 02:34:00,
2013-03-23 22:36:00,29.1,21.2,30.01,North,3,0.0,4.0,72,0.00,,---,0.00,VWS V14.00,2013-03-24 02:36:00,
2013-03-23 22:37:00,29.1,21.2,30.01,North,3,0.0,4.0,72,0.00,,---,0.00,VWS V14.00,2013-03-24 02:37:00,
2013-03-23 22:39:00,29.1,21.2,30.01,North,3,0.0,4.0,72,0.00,,---,0.00,VWS V14.00,2013-03-24 02:39:00,
2013-03-23 22:41:00,29.1,21.2,30.01,North,3,0.0,4.0,72,0.00,,---,0.00,VWS V14.00,2013-03-24 02:41:00,
2013-03-23 22:42:00,29.0,21.1,30.01,North,3,0.0,4.0,72,0.00,,---,0.00,VWS V14.00,2013-03-24 02:42:00,
2013-03-23 22:44:00,29.0,21.1,30.01,North,3,1.0,4.0,72,0.00,,---,0.00,VWS V14.00,2013-03-24 02:44:00,
2013-03-23 22:47:00,29.0,21.4,30.00,North,3,1.0,4.0,73,0.00,,---,0.00,VWS V14.00,2013-03-24 02:47:00,
2013-03-23 22:49:00,29.0,21.4,30.00,North,7,2.0,4.0,73,0.00,,---,0.00,VWS V14.00,2013-03-24 02:49:00,
2013-03-23 22:52:00,29.0,21.4,30.00,North,7,2.0,4.0,73,0.00,,---,0.00,VWS V14.00,2013-03-24 02:52:00,
2013-03-23 22:54:00,29.0,21.4,30.00,North,10,2.0,4.0,73,0.00,,---,0.00,VWS V14.00,2013-03-24 02:54:00,
2013-03-23 22:57:00,29.0,21.8,30.00,NNE,27,2.0,6.0,74,0.00,,---,0.00,VWS V14.00,2013-03-24 02:57:00,
2013-03-23 22:59:00,29.0,21.8,30.00,NNE,27,0.0,6.0,74,0.00,,---,0.00,VWS V14.00,2013-03-24 02:59:00,
2013-03-23 23:00:00,29.5,22.2,29.98,NE,44,1.0,8.0,74,0.00,,---,0.00,VWS V14.00,2013-03-24 03:00:00,
2013-03-23 23:01:00,29.5,22.2,29.98,NE,44,1.0,2.0,74,0.00,,---,0.00,VWS V14.00,2013-03-24 03:01:00,
2013-03-23 23:02:00,29.1,21.9,29.99,NNE,27,2.0,6.0,74,0.00,,---,0.00,VWS V14.00,2013-03-24 03:02:00,
2013-03-23 23:03:00,29.1,21.9,29.99,NNE,27,2.0,6.0,74,0.00,,---,0.00,VWS V14.00,2013-03-24 03:03:00,
2013-03-23 23:04:00,29.1,21.9,29.99,NNE,30,4.0,6.0,74,0.00,,---,0.00,VWS V14.00,2013-03-24 03:04:00,
2013-03-23 23:07:00,29.1,21.9,29.99,NNE,17,1.0,6.0,74,0.00,,---,0.00,VWS V14.00,2013-03-24 03:07:00,
2013-03-23 23:08:00,29.1,21.9,29.99,NNE,17,1.0,6.0,74,0.00,,---,0.00,VWS V14.00,2013-03-24 03:08:00,
2013-03-23 23:09:00,29.3,22.1,29.99,NNE,31,2.0,6.0,74,0.00,,---,0.00,VWS V14.00,2013-03-24 03:09:00,
2013-03-23 23:12:00,29.3,22.1,29.99,NNE,31,2.0,6.0,74,0.00,,---,0.00,VWS V14.00,2013-03-24 03:12:00,
2013-03-23 23:13:00,29.3,22.1,29.99,NNE,31,0.0,6.0,74,0.00,,---,0.00,VWS V14.00,2013-03-24 03:13:00,
2013-03-23 23:14:00,29.3,22.1,30.00,East,82,2.0,6.0,74,0.00,,---,0.00,VWS V14.00,2013-03-24 03:14:00,
2013-03-23 23:15:00,29.3,22.1,30.00,ENE,72,4.0,6.0,74,0.00,,---,0.00,VWS V14.00,2013-03-24 03:15:00,
2013-03-23 23:17:00,29.4,22.1,30.00,NE,51,4.0,6.0,74,0.00,,---,0.00,VWS V14.00,2013-03-24 03:17:00,
2013-03-23 23:18:00,29.4,22.1,30.00,NE,48,2.0,6.0,74,0.00,,---,0.00,VWS V14.00,2013-03-24 03:18:00,
2013-03-23 23:19:00,29.4,22.1,30.00,NE,44,4.0,6.0,74,0.00,,---,0.00,VWS V14.00,2013-03-24 03:19:00,
2013-03-23 23:20:00,29.4,22.1,30.00,NE,48,2.0,6.0,74,0.00,,---,0.00,VWS V14.00,2013-03-24 03:20:00,
2013-03-23 23:22:00,29.4,22.1,30.00,NE,48,6.0,6.0,74,0.00,,---,0.00,VWS V14.00,2013-03-24 03:22:00,
2013-03-23 23:23:00,29.4,22.1,30.00,NE,48,4.0,6.0,74,0.00,,---,0.00,VWS V14.00,2013-03-24 03:23:00,
2013-03-23 23:24:00,29.4,22.1,30.00,NE,47,4.0,6.0,74,0.00,,---,0.00,VWS V14.00,2013-03-24 03:24:00,
2013-03-23 23:25:00,29.4,22.1,30.00,NE,47,4.0,6.0,74,0.00,,---,0.00,VWS V14.00,2013-03-24 03:25:00,
2013-03-23 23:28:00,29.4,21.8,30.00,NE,48,1.0,6.0,73,0.00,,---,0.00,VWS V14.00,2013-03-24 03:28:00,
2013-03-23 23:30:00,29.4,21.8,30.00,NE,48,1.0,6.0,73,0.00,,---,0.00,VWS V14.00,2013-03-24 03:30:00,
2013-03-23 23:33:00,29.4,21.8,30.00,NE,34,2.0,6.0,73,0.00,,---,0.00,VWS V14.00,2013-03-24 03:33:00,
2013-03-23 23:35:00,29.4,21.8,30.00,NE,44,2.0,6.0,73,0.00,,---,0.00,VWS V14.00,2013-03-24 03:35:00,
2013-03-23 23:38:00,29.4,21.8,30.00,NE,37,2.0,6.0,73,0.00,,---,0.00,VWS V14.00,2013-03-24 03:38:00,
2013-03-23 23:39:00,29.4,21.8,30.00,NE,37,2.0,6.0,73,0.00,,---,0.00,VWS V14.00,2013-03-24 03:39:00,
2013-03-23 23:40:00,29.4,21.8,30.00,NE,34,4.0,6.0,73,0.00,,---,0.00,VWS V14.00,2013-03-24 03:40:00,
2013-03-23 23:43:00,29.4,21.8,30.00,NE,54,1.0,6.0,73,0.00,,---,0.00,VWS V14.00,2013-03-24 03:43:00,
2013-03-23 23:44:00,29.4,21.8,30.00,NE,54,2.0,6.0,73,0.00,,---,0.00,VWS V14.00,2013-03-24 03:44:00,
2013-03-23 23:45:00,29.4,21.8,29.99,NNE,27,4.0,7.0,73,0.00,,---,0.00,VWS V14.00,2013-03-24 03:45:00,
2013-03-23 23:48:00,29.4,21.8,29.99,NE,41,2.0,7.0,73,0.00,,---,0.00,VWS V14.00,2013-03-24 03:48:00,
2013-03-23 23:49:00,29.4,21.8,29.99,NE,41,2.0,7.0,73,0.00,,---,0.00,VWS V14.00,2013-03-24 03:49:00,
2013-03-23 23:50:00,29.4,22.1,29.99,NE,41,4.0,8.0,74,0.00,,---,0.00,VWS V14.00,2013-03-24 03:50:00,
2013-03-23 23:53:00,29.4,22.1,29.99,NE,41,1.0,8.0,74,0.00,,---,0.00,VWS V14.00,2013-03-24 03:53:00,
2013-03-23 23:54:00,29.4,22.1,29.99,NE,41,1.0,8.0,74,0.00,,---,0.00,VWS V14.00,2013-03-24 03:54:00,
2013-03-23 23:55:00,29.4,22.1,29.99,NE,41,1.0,8.0,74,0.00,,---,0.00,VWS V14.00,2013-03-24 03:55:00,
2013-03-23 23:58:00,29.4,22.1,29.99,NE,44,1.0,8.0,74,0.00,,---,0.00,VWS V14.00,2013-03-24 03:58:00,
2013-03-23 23:59:00,29.5,22.2,29.99,NE,44,0.0,8.0,74,0.00,,---,0.00,VWS V14.00,2013-03-24 03:59:00,